Time,TemperatureF,DewpointF,PressureIn,WindDirection,WindDirectionDegrees,WindSpeedMPH,WindSpeedGustMPH,Humidity,HourlyPrecipIn,Conditions,Clouds,dailyrainin,SoftwareType,DateUTC
2013-09-08 00:01:00,69.4,68.2,29.93,ESE,104,4.0,4.0,96,0.00,,,0.06,Wunderground v.1.15,2013-09-08 04:01:00,
2013-09-08 00:03:00,69.4,68.2,29.93,ESE,104,3.0,4.0,96,0.00,,,0.06,Wunderground v.1.15,2013-09-08 04:03:00,
2013-09-08 00:04:00,69.4,68.2,29.93,ESE,105,3.0,4.0,96,0.00,,,0.06,Wunderground v.1.15,2013-09-08 04:04:00,
2013-09-08 00:07:00,69.3,68.1,29.93,ESE,105,3.0,4.0,96,0.00,,,0.06,Wunderground v.1.15,2013-09-08 04:07:00,
2013-09-08 00:10:00,69.2,68.0,29.93,ESE,105,4.0,4.0,96,0.00,,,0.06,Wunderground v.1.15,2013-09-08 04:10:00,
2013-09-08 00:11:00,69.2,68.0,29.93,ESE,108,4.0,4.0,96,0.00,,,0.06,Wunderground v.1.15,2013-09-08 04:11:00,
2013-09-08 00:13:00,69.2,68.0,29.93,ESE,108,3.0,4.0,96,0.00,,,0.06,Wunderground v.1.15,2013-09-08 04:13:00,
2013-09-08 00:16:00,69.0,67.8,29.93,ESE,108,1.0,4.0,96,0.00,,,0.00,Wunderground v.1.15,2013-09-08 04:16:00,
2013-09-08 00:18:00,69.0,68.1,29.93,ESE,108,2.0,4.0,97,0.00,,,0.00,Wunderground v.1.15,2013-09-08 04:18:00,
2013-09-08 00:19:00,69.0,68.1,29.94,ESE,108,0.0,4.0,97,0.00,,,0.00,Wunderground v.1.15,2013-09-08 04:19:00,
2013-09-08 00:21:00,68.9,68.0,29.94,ESE,111,4.0,4.0,97,0.00,,,0.00,Wunderground v.1.15,2013-09-08 04:21:00,
2013-09-08 00:23:00,68.9,68.0,29.94,ESE,111,0.0,4.0,97,0.00,,,0.00,Wunderground v.1.15,2013-09-08 04:23:00,
2013-09-08 00:24:00,68.9,68.0,29.94,ESE,111,0.0,4.0,97,0.00,,,0.00,Wunderground v.1.15,2013-09-08 04:24:00,
2013-09-08 00:25:00,68.9,68.0,29.94,ESE,114,4.0,4.0,97,0.00,,,0.00,Wunderground v.1.15,2013-09-08 04:25:00,
2013-09-08 00:27:00,68.9,68.0,29.93,ESE,119,0.0,4.0,97,0.00,,,0.00,Wunderground v.1.15,2013-09-08 04:27:00,
2013-09-08 00:29:00,68.9,68.0,29.93,ESE,115,1.0,4.0,97,0.00,,,0.00,Wunderground v.1.15,2013-09-08 04:29:00,
2013-09-08 00:30:00,68.9,68.0,29.94,ESE,113,4.0,4.0,97,0.00,,,0.00,Wunderground v.1.15,2013-09-08 04:30:00,
2013-09-08 00:31:00,68.9,68.0,29.94,ESE,113,2.0,4.0,97,0.00,,,0.00,Wunderground v.1.15,2013-09-08 04:31:00,
2013-09-08 00:32:00,68.9,68.0,29.94,ESE,113,2.0,4.0,97,0.00,,,0.00,Wunderground v.1.15,2013-09-08 04:32:00,
2013-09-08 00:34:00,68.9,68.0,29.94,ESE,113,1.0,4.0,97,0.00,,,0.00,Wunderground v.1.15,2013-09-08 04:34:00,
2013-09-08 00:37:00,68.9,68.0,29.94,ESE,113,2.0,4.0,97,0.00,,,0.00,Wunderground v.1.15,2013-09-08 04:37:00,
2013-09-08 00:38:00,68.9,68.0,29.94,ESE,113,3.0,4.0,97,0.00,,,0.00,Wunderground v.1.15,2013-09-08 04:38:00,
2013-09-08 00:40:00,68.9,68.0,29.94,ESE,113,1.0,2.0,97,0.00,,,0.00,Wunderground v.1.15,2013-09-08 04:40:00,
2013-09-08 00:42:00,68.9,68.0,29.94,ESE,112,3.0,3.0,97,0.00,,,0.00,Wunderground v.1.15,2013-09-08 04:42:00,
2013-09-08 00:43:00,68.8,67.9,29.94,ESE,105,2.0,3.0,97,0.00,,,0.00,Wunderground v.1.15,2013-09-08 04:43:00,
2013-09-08 00:45:00,68.8,67.9,29.94,ESE,105,2.0,3.0,97,0.00,,,0.00,Wunderground v.1.15,2013-09-08 04:45:00,
2013-09-08 00:47:00,68.8,67.9,29.94,ESE,105,2.0,3.0,97,0.00,,,0.00,Wunderground v.1.15,2013-09-08 04:47:00,
2013-09-08 00:48:00,68.8,67.9,29.94,ESE,105,2.0,3.0,97,0.00,,,0.00,Wunderground v.1.15,2013-09-08 04:48:00,
2013-09-08 00:51:00,68.8,67.9,29.94,ESE,105,0.0,3.0,97,0.00,,,0.00,Wunderground v.1.15,2013-09-08 04:51:00,
2013-09-08 00:52:00,68.7,67.8,29.94,ESE,105,2.0,3.0,97,0.00,,,0.00,Wunderground v.1.15,2013-09-08 04:52:00,
2013-09-08 00:53:00,68.7,67.8,29.94,ESE,105,1.0,3.0,97,0.00,,,0.00,Wunderground v.1.15,2013-09-08 04:53:00,
2013-09-08 00:55:00,68.7,67.8,29.94,ESE,105,2.0,3.0,97,0.00,,,0.00,Wunderground v.1.15,2013-09-08 04:55:00,
2013-09-08 00:57:00,68.7,67.8,29.94,ESE,106,3.0,3.0,97,0.00,,,0.00,Wunderground v.1.15,2013-09-08 04:57:00,
2013-09-08 01:00:00,68.6,67.7,29.94,ESE,123,1.0,2.0,97,0.00,,,0.00,Wunderground v.1.15,2013-09-08 05:00:00,
2013-09-08 01:03:00,68.6,67.7,29.94,ESE,123,2.0,2.0,97,0.00,,,0.00,Wunderground v.1.15,2013-09-08 05:03:00,
2013-09-08 01:06:00,68.6,67.7,29.94,ESE,120,3.0,3.0,97,0.00,,,0.00,Wunderground v.1.15,2013-09-08 05:06:00,
2013-09-08 01:07:00,68.6,67.7,29.94,ESE,120,3.0,3.0,97,0.00,,,0.00,Wunderground v.1.15,2013-09-08 05:07:00,
2013-09-08 01:08:00,68.6,67.7,29.94,ESE,120,2.0,3.0,97,0.00,,,0.00,Wunderground v.1.15,2013-09-08 05:08:00,
2013-09-08 01:10:00,68.6,67.7,29.94,ESE,120,3.0,3.0,97,0.00,,,0.00,Wunderground v.1.15,2013-09-08 05:10:00,
2013-09-08 01:13:00,68.5,67.6,29.94,ESE,120,3.0,3.0,97,0.00,,,0.00,Wunderground v.1.15,2013-09-08 05:13:00,
2013-09-08 01:14:00,68.5,67.6,29.94,ESE,120,2.0,3.0,97,0.00,,,0.00,Wunderground v.1.15,2013-09-08 05:14:00,
2013-09-08 01:15:00,68.5,67.6,29.94,ESE,120,1.0,3.0,97,0.00,,,0.00,Wunderground v.1.15,2013-09-08 05:15:00,
2013-09-08 01:16:00,68.5,67.6,29.94,ESE,114,2.0,3.0,97,0.00,,,0.00,Wunderground v.1.15,2013-09-08 05:16:00,
2013-09-08 01:17:00,68.5,67.6,29.94,ESE,114,0.0,3.0,97,0.00,,,0.00,Wunderground v.1.15,2013-09-08 05:17:00,
2013-09-08 01:20:00,68.4,67.5,29.94,ESE,114,1.0,2.0,97,0.00,,,0.00,Wunderground v.1.15,2013-09-08 05:20:00,
2013-09-08 01:21:00,68.4,67.5,29.94,ESE,114,1.0,2.0,97,0.00,,,0.00,Wunderground v.1.15,2013-09-08 05:21:00,
2013-09-08 01:24:00,68.4,67.5,29.94,ESE,115,1.0,3.0,97,0.00,,,0.00,Wunderground v.1.15,2013-09-08 05:24:00,
2013-09-08 01:26:00,68.4,67.5,29.94,ESE,115,3.0,3.0,97,0.00,,,0.00,Wunderground v.1.15,2013-09-08 05:26:00,
2013-09-08 01:28:00,68.4,67.5,29.94,ESE,115,2.0,3.0,97,0.00,,,0.00,Wunderground v.1.15,2013-09-08 05:28:00,
2013-09-08 01:29:00,68.4,67.5,29.94,ESE,115,3.0,3.0,97,0.00,,,0.00,Wunderground v.1.15,2013-09-08 05:29:00,
2013-09-08 01:30:00,68.3,67.4,29.94,ESE,115,1.0,2.0,97,0.00,,,0.00,Wunderground v.1.15,2013-09-08 05:30:00,
2013-09-08 01:31:00,68.4,67.5,29.94,ESE,115,2.0,2.0,97,0.00,,,0.00,Wunderground v.1.15,2013-09-08 05:31:00,
2013-09-08 01:32:00,68.3,67.4,29.94,ESE,115,1.0,2.0,97,0.00,,,0.00,Wunderground v.1.15,2013-09-08 05:32:00,
2013-09-08 01:34:00,68.3,67.4,29.94,ESE,115,0.0,2.0,97,0.00,,,0.00,Wunderground v.1.15,2013-09-08 05:34:00,
2013-09-08 01:36:00,68.3,67.4,29.94,ESE,115,0.0,2.0,97,0.00,,,0.00,Wunderground v.1.15,2013-09-08 05:36:00,
2013-09-08 01:37:00,68.2,67.3,29.94,ESE,115,0.0,2.0,97,0.00,,,0.00,Wunderground v.1.15,2013-09-08 05:37:00,
2013-09-08 01:38:00,68.2,67.3,29.94,ESE,115,1.0,2.0,97,0.00,,,0.00,Wunderground v.1.15,2013-09-08 05:38:00,
2013-09-08 01:40:00,68.1,67.2,29.94,ESE,115,0.0,1.0,97,0.00,,,0.00,Wunderground v.1.15,2013-09-08 05:40:00,
2013-09-08 01:43:00,68.0,67.1,29.94,ESE,115,0.0,1.0,97,0.00,,,0.00,Wunderground v.1.15,2013-09-08 05:43:00,
2013-09-08 01:44:00,68.0,67.1,29.94,ESE,115,0.0,1.0,97,0.00,,,0.00,Wunderground v.1.15,2013-09-08 05:44:00,
2013-09-08 01:48:00,67.9,67.0,29.94,ESE,115,0.0,1.0,97,0.00,,,0.00,Wunderground v.1.15,2013-09-08 05:48:00,
2013-09-08 01:49:00,67.8,66.9,29.94,ESE,115,1.0,1.0,97,0.00,,,0.00,Wunderground v.1.15,2013-09-08 05:49:00,
2013-09-08 01:50:00,67.8,66.9,29.94,ESE,115,0.0,0.0,97,0.00,,,0.00,Wunderground v.1.15,2013-09-08 05:50:00,
2013-09-08 01:52:00,67.8,66.9,29.94,ESE,115,1.0,1.0,97,0.00,,,0.00,Wunderground v.1.15,2013-09-08 05:52:00,
2013-09-08 01:53:00,67.8,66.9,29.94,ESE,115,0.0,1.0,97,0.00,,,0.00,Wunderground v.1.15,2013-09-08 05:53:00,
2013-09-08 01:54:00,67.8,66.9,29.94,ESE,115,0.0,1.0,97,0.00,,,0.00,Wunderground v.1.15,2013-09-08 05:54:00,
2013-09-08 01:56:00,67.7,66.8,29.94,ESE,115,0.0,1.0,97,0.00,,,0.00,Wunderground v.1.15,2013-09-08 05:56:00,
2013-09-08 01:58:00,67.7,66.8,29.94,ESE,115,0.0,1.0,97,0.00,,,0.00,Wunderground v.1.15,2013-09-08 05:58:00,
2013-09-08 01:59:00,67.6,66.7,29.94,ESE,115,0.0,1.0,97,0.00,,,0.00,Wunderground v.1.15,2013-09-08 05:59:00,
2013-09-08 02:00:00,67.6,66.7,29.94,ESE,115,1.0,1.0,97,0.00,,,0.00,Wunderground v.1.15,2013-09-08 06:00:00,
2013-09-08 02:02:00,67.6,66.7,29.94,ESE,115,0.0,1.0,97,0.00,,,0.00,Wunderground v.1.15,2013-09-08 06:02:00,
2013-09-08 02:03:00,67.5,66.6,29.94,ESE,115,1.0,2.0,97,0.00,,,0.00,Wunderground v.1.15,2013-09-08 06:03:00,
2013-09-08 02:04:00,67.5,66.9,29.94,ESE,115,0.0,2.0,98,0.00,,,0.00,Wunderground v.1.15,2013-09-08 06:04:00,
2013-09-08 02:05:00,67.5,66.9,29.94,ESE,115,0.0,2.0,98,0.00,,,0.00,Wunderground v.1.15,2013-09-08 06:05:00,
2013-09-08 02:06:00,67.5,66.9,29.94,ESE,115,0.0,2.0,98,0.00,,,0.00,Wunderground v.1.15,2013-09-08 06:06:00,
2013-09-08 02:07:00,67.5,66.9,29.94,ESE,115,0.0,2.0,98,0.00,,,0.00,Wunderground v.1.15,2013-09-08 06:07:00,
2013-09-08 02:08:00,67.5,66.9,29.94,ESE,115,0.0,2.0,98,0.00,,,0.00,Wunderground v.1.15,2013-09-08 06:08:00,
2013-09-08 02:09:00,67.5,66.9,29.94,ESE,115,0.0,2.0,98,0.00,,,0.00,Wunderground v.1.15,2013-09-08 06:09:00,
2013-09-08 02:10:00,67.5,66.9,29.94,ESE,115,0.0,0.0,98,0.00,,,0.00,Wunderground v.1.15,2013-09-08 06:10:00,
2013-09-08 02:11:00,67.5,66.9,29.94,ESE,115,0.0,1.0,98,0.00,,,0.00,Wunderground v.1.15,2013-09-08 06:11:00,
2013-09-08 02:12:00,67.5,66.9,29.94,ESE,115,0.0,1.0,98,0.00,,,0.00,Wunderground v.1.15,2013-09-08 06:12:00,
2013-09-08 02:13:00,67.5,66.9,29.94,ESE,115,0.0,1.0,98,0.00,,,0.00,Wunderground v.1.15,2013-09-08 06:13:00,
2013-09-08 02:14:00,67.5,66.9,29.94,ESE,115,0.0,1.0,98,0.00,,,0.00,Wunderground v.1.15,2013-09-08 06:14:00,
2013-09-08 02:15:00,67.5,66.9,29.94,ESE,115,0.0,1.0,98,0.00,,,0.00,Wunderground v.1.15,2013-09-08 06:15:00,
2013-09-08 02:16:00,67.5,66.9,29.95,ESE,115,0.0,1.0,98,0.00,,,0.00,Wunderground v.1.15,2013-09-08 06:16:00,
2013-09-08 02:17:00,67.5,66.9,29.95,ESE,115,0.0,1.0,98,0.00,,,0.00,Wunderground v.1.15,2013-09-08 06:17:00,
2013-09-08 02:18:00,67.5,66.9,29.94,ESE,115,0.0,1.0,98,0.00,,,0.00,Wunderground v.1.15,2013-09-08 06:18:00,
2013-09-08 02:19:00,67.5,66.9,29.94,ESE,115,0.0,1.0,98,0.00,,,0.00,Wunderground v.1.15,2013-09-08 06:19:00,
2013-09-08 02:20:00,67.4,66.8,29.95,ESE,115,0.0,0.0,98,0.00,,,0.00,Wunderground v.1.15,2013-09-08 06:20:00,
2013-09-08 02:21:00,67.4,66.8,29.95,ESE,115,0.0,1.0,98,0.00,,,0.00,Wunderground v.1.15,2013-09-08 06:21:00,
2013-09-08 02:22:00,67.4,66.8,29.95,ESE,115,0.0,1.0,98,0.00,,,0.00,Wunderground v.1.15,2013-09-08 06:22:00,
2013-09-08 02:23:00,67.4,66.8,29.95,ESE,115,0.0,1.0,98,0.00,,,0.00,Wunderground v.1.15,2013-09-08 06:23:00,
2013-09-08 02:24:00,67.4,66.8,29.94,ESE,115,0.0,1.0,98,0.00,,,0.00,Wunderground v.1.15,2013-09-08 06:24:00,
2013-09-08 02:26:00,67.4,66.8,29.95,ESE,115,0.0,1.0,98,0.00,,,0.00,Wunderground v.1.15,2013-09-08 06:26:00,
2013-09-08 02:27:00,67.3,66.7,29.94,ESE,115,0.0,2.0,98,0.00,,,0.00,Wunderground v.1.15,2013-09-08 06:27:00,
2013-09-08 02:29:00,67.2,66.6,29.94,ESE,115,1.0,2.0,98,0.00,,,0.00,Wunderground v.1.15,2013-09-08 06:29:00,
2013-09-08 02:30:00,67.2,66.6,29.94,ESE,115,0.0,2.0,98,0.00,,,0.00,Wunderground v.1.15,2013-09-08 06:30:00,
2013-09-08 02:31:00,67.2,66.6,29.94,ESE,115,1.0,2.0,98,0.00,,,0.00,Wunderground v.1.15,2013-09-08 06:31:00,
2013-09-08 02:33:00,67.2,66.6,29.94,ESE,115,0.0,3.0,98,0.00,,,0.00,Wunderground v.1.15,2013-09-08 06:33:00,
2013-09-08 02:34:00,67.1,66.5,29.95,ESE,115,0.0,3.0,98,0.00,,,0.00,Wunderground v.1.15,2013-09-08 06:34:00,
2013-09-08 02:35:00,67.1,66.5,29.95,ESE,115,1.0,3.0,98,0.00,,,0.00,Wunderground v.1.15,2013-09-08 06:35:00,
2013-09-08 02:36:00,67.1,66.5,29.95,ESE,115,0.0,3.0,98,0.00,,,0.00,Wunderground v.1.15,2013-09-08 06:36:00,
2013-09-08 02:39:00,67.1,66.5,29.95,ESE,115,3.0,3.0,98,0.00,,,0.00,Wunderground v.1.15,2013-09-08 06:39:00,
2013-09-08 02:40:00,67.1,66.5,29.95,ESE,115,1.0,1.0,98,0.00,,,0.00,Wunderground v.1.15,2013-09-08 06:40:00,
2013-09-08 02:41:00,67.1,66.5,29.95,ESE,115,0.0,2.0,98,0.00,,,0.00,Wunderground v.1.15,2013-09-08 06:41:00,
2013-09-08 02:44:00,67.1,66.5,29.95,ESE,115,0.0,2.0,98,0.00,,,0.00,Wunderground v.1.15,2013-09-08 06:44:00,
2013-09-08 02:45:00,67.1,66.5,29.95,ESE,115,0.0,2.0,98,0.00,,,0.00,Wunderground v.1.15,2013-09-08 06:45:00,
2013-09-08 02:46:00,67.1,66.5,29.95,ESE,115,0.0,2.0,98,0.00,,,0.00,Wunderground v.1.15,2013-09-08 06:46:00,
2013-09-08 02:47:00,67.1,66.5,29.95,ESE,115,0.0,2.0,98,0.00,,,0.00,Wunderground v.1.15,2013-09-08 06:47:00,
2013-09-08 02:50:00,67.0,66.4,29.95,ESE,115,0.0,0.0,98,0.00,,,0.00,Wunderground v.1.15,2013-09-08 06:50:00,
2013-09-08 02:51:00,66.9,66.3,29.95,ESE,115,0.0,0.0,98,0.00,,,0.00,Wunderground v.1.15,2013-09-08 06:51:00,
2013-09-08 02:52:00,66.9,66.3,29.95,ESE,115,0.0,0.0,98,0.00,,,0.00,Wunderground v.1.15,2013-09-08 06:52:00,
2013-09-08 02:53:00,67.0,66.4,29.95,ESE,115,0.0,0.0,98,0.00,,,0.00,Wunderground v.1.15,2013-09-08 06:53:00,
2013-09-08 02:55:00,66.9,66.3,29.95,ESE,115,0.0,0.0,98,0.00,,,0.00,Wunderground v.1.15,2013-09-08 06:55:00,
2013-09-08 02:56:00,66.9,66.3,29.95,ESE,115,1.0,1.0,98,0.00,,,0.00,Wunderground v.1.15,2013-09-08 06:56:00,
2013-09-08 02:57:00,66.9,66.3,29.95,ESE,115,0.0,1.0,98,0.00,,,0.00,Wunderground v.1.15,2013-09-08 06:57:00,
2013-09-08 02:58:00,66.9,66.3,29.95,ESE,115,0.0,1.0,98,0.00,,,0.00,Wunderground v.1.15,2013-09-08 06:58:00,
2013-09-08 02:59:00,66.9,66.3,29.95,ESE,115,0.0,1.0,98,0.00,,,0.00,Wunderground v.1.15,2013-09-08 06:59:00,
2013-09-08 03:00:00,66.8,66.2,29.95,ESE,115,0.0,0.0,98,0.00,,,0.00,Wunderground v.1.15,2013-09-08 07:00:00,
2013-09-08 03:01:00,66.8,66.2,29.95,ESE,115,0.0,1.0,98,0.00,,,0.00,Wunderground v.1.15,2013-09-08 07:01:00,
2013-09-08 03:02:00,66.8,66.2,29.95,ESE,115,0.0,1.0,98,0.00,,,0.00,Wunderground v.1.15,2013-09-08 07:02:00,
2013-09-08 03:04:00,66.8,66.2,29.95,ESE,115,0.0,2.0,98,0.00,,,0.00,Wunderground v.1.15,2013-09-08 07:04:00,
2013-09-08 03:05:00,66.8,66.2,29.95,ESE,115,0.0,2.0,98,0.00,,,0.00,Wunderground v.1.15,2013-09-08 07:05:00,
2013-09-08 03:06:00,66.8,66.2,29.95,ESE,115,0.0,2.0,98,0.00,,,0.00,Wunderground v.1.15,2013-09-08 07:06:00,
2013-09-08 03:07:00,66.8,66.2,29.95,ESE,115,0.0,2.0,98,0.00,,,0.00,Wunderground v.1.15,2013-09-08 07:07:00,
2013-09-08 03:09:00,66.8,66.2,29.95,ESE,115,1.0,2.0,98,0.00,,,0.00,Wunderground v.1.15,2013-09-08 07:09:00,
2013-09-08 03:10:00,66.9,66.3,29.95,ESE,115,0.0,1.0,98,0.00,,,0.00,Wunderground v.1.15,2013-09-08 07:10:00,
2013-09-08 03:12:00,67.0,66.4,29.95,ESE,115,0.0,1.0,98,0.00,,,0.00,Wunderground v.1.15,2013-09-08 07:12:00,
2013-09-08 03:13:00,67.0,66.4,29.95,ESE,115,0.0,3.0,98,0.00,,,0.00,Wunderground v.1.15,2013-09-08 07:13:00,
2013-09-08 03:14:00,67.0,66.4,29.95,ESE,115,0.0,3.0,98,0.00,,,0.00,Wunderground v.1.15,2013-09-08 07:14:00,
2013-09-08 03:15:00,67.1,66.5,29.95,ESE,115,2.0,3.0,98,0.00,,,0.00,Wunderground v.1.15,2013-09-08 07:15:00,
2013-09-08 03:17:00,67.1,66.5,29.95,ESE,115,0.0,3.0,98,0.00,,,0.00,Wunderground v.1.15,2013-09-08 07:17:00,
2013-09-08 03:18:00,67.1,66.5,29.95,ESE,115,2.0,3.0,98,0.00,,,0.00,Wunderground v.1.15,2013-09-08 07:18:00,
2013-09-08 03:19:00,67.2,66.6,29.95,ESE,115,2.0,3.0,98,0.00,,,0.00,Wunderground v.1.15,2013-09-08 07:19:00,
2013-09-08 03:21:00,67.3,66.7,29.95,ESE,115,0.0,3.0,98,0.00,,,0.00,Wunderground v.1.15,2013-09-08 07:21:00,
2013-09-08 03:22:00,67.4,66.8,29.95,ESE,115,0.0,3.0,98,0.00,,,0.00,Wunderground v.1.15,2013-09-08 07:22:00,
2013-09-08 03:23:00,67.4,66.8,29.95,ESE,115,0.0,3.0,98,0.00,,,0.00,Wunderground v.1.15,2013-09-08 07:23:00,
2013-09-08 03:24:00,67.4,66.8,29.95,ESE,115,0.0,3.0,98,0.00,,,0.00,Wunderground v.1.15,2013-09-08 07:24:00,
2013-09-08 03:26:00,67.5,66.9,29.95,ESE,115,0.0,3.0,98,0.00,,,0.00,Wunderground v.1.15,2013-09-08 07:26:00,
2013-09-08 03:27:00,67.5,66.6,29.95,ESE,115,0.0,3.0,97,0.00,,,0.00,Wunderground v.1.15,2013-09-08 07:27:00,
2013-09-08 03:28:00,67.6,66.7,29.95,ESE,115,2.0,3.0,97,0.00,,,0.00,Wunderground v.1.15,2013-09-08 07:28:00,
2013-09-08 03:29:00,67.6,66.7,29.95,ESE,115,0.0,3.0,97,0.00,,,0.00,Wunderground v.1.15,2013-09-08 07:29:00,
2013-09-08 03:31:00,67.7,66.8,29.95,ESE,115,0.0,2.0,97,0.00,,,0.00,Wunderground v.1.15,2013-09-08 07:31:00,
2013-09-08 03:33:00,67.7,66.8,29.95,ESE,115,1.0,3.0,97,0.00,,,0.00,Wunderground v.1.15,2013-09-08 07:33:00,
2013-09-08 03:34:00,67.8,66.9,29.95,ESE,113,1.0,3.0,97,0.00,,,0.00,Wunderground v.1.15,2013-09-08 07:34:00,
2013-09-08 03:37:00,68.0,66.8,29.95,ESE,105,1.0,4.0,96,0.00,,,0.00,Wunderground v.1.15,2013-09-08 07:37:00,
2013-09-08 03:38:00,68.0,66.8,29.95,ESE,105,3.0,4.0,96,0.00,,,0.00,Wunderground v.1.15,2013-09-08 07:38:00,
2013-09-08 03:40:00,68.1,66.6,29.95,ESE,105,0.0,1.0,95,0.00,,,0.00,Wunderground v.1.15,2013-09-08 07:40:00,
2013-09-08 03:41:00,68.1,66.6,29.95,East,80,1.0,4.0,95,0.00,,,0.00,Wunderground v.1.15,2013-09-08 07:41:00,
2013-09-08 03:42:00,68.2,66.7,29.95,East,80,0.0,4.0,95,0.00,,,0.00,Wunderground v.1.15,2013-09-08 07:42:00,
2013-09-08 03:43:00,68.2,66.7,29.95,East,80,0.0,4.0,95,0.00,,,0.00,Wunderground v.1.15,2013-09-08 07:43:00,
2013-09-08 03:44:00,68.2,66.7,29.95,East,80,0.0,4.0,95,0.00,,,0.00,Wunderground v.1.15,2013-09-08 07:44:00,
2013-09-08 03:46:00,68.3,66.8,29.95,East,80,0.0,4.0,95,0.00,,,0.00,Wunderground v.1.15,2013-09-08 07:46:00,
2013-09-08 03:47:00,68.3,66.8,29.95,East,80,0.0,4.0,95,0.00,,,0.00,Wunderground v.1.15,2013-09-08 07:47:00,
2013-09-08 03:48:00,68.3,66.5,29.95,East,80,0.0,4.0,94,0.00,,,0.00,Wunderground v.1.15,2013-09-08 07:48:00,
2013-09-08 03:49:00,68.3,66.5,29.95,East,80,0.0,4.0,94,0.00,,,0.00,Wunderground v.1.15,2013-09-08 07:49:00,
2013-09-08 03:52:00,68.4,66.6,29.95,East,80,0.0,0.0,94,0.00,,,0.00,Wunderground v.1.15,2013-09-08 07:52:00,
2013-09-08 03:53:00,68.4,66.6,29.95,East,80,1.0,1.0,94,0.00,,,0.00,Wunderground v.1.15,2013-09-08 07:53:00,
2013-09-08 03:54:00,68.4,66.6,29.95,ENE,78,1.0,1.0,94,0.00,,,0.00,Wunderground v.1.15,2013-09-08 07:54:00,
2013-09-08 03:57:00,68.4,66.6,29.95,ENE,78,0.0,3.0,94,0.00,,,0.00,Wunderground v.1.15,2013-09-08 07:57:00,
2013-09-08 03:58:00,68.4,66.6,29.95,ENE,78,0.0,3.0,94,0.00,,,0.00,Wunderground v.1.15,2013-09-08 07:58:00,
2013-09-08 03:59:00,68.4,66.6,29.95,ENE,78,0.0,3.0,94,0.00,,,0.00,Wunderground v.1.15,2013-09-08 07:59:00,
2013-09-08 04:03:00,68.4,66.6,29.95,ENE,78,1.0,1.0,94,0.00,,,0.00,Wunderground v.1.15,2013-09-08 08:03:00,
2013-09-08 04:04:00,68.4,66.6,29.95,ENE,78,0.0,1.0,94,0.00,,,0.00,Wunderground v.1.15,2013-09-08 08:04:00,
2013-09-08 04:06:00,68.4,66.6,29.95,ENE,78,0.0,1.0,94,0.00,,,0.00,Wunderground v.1.15,2013-09-08 08:06:00,
2013-09-08 04:09:00,68.4,66.6,29.95,ENE,78,1.0,2.0,94,0.00,,,0.00,Wunderground v.1.15,2013-09-08 08:09:00,
2013-09-08 04:10:00,68.3,66.5,29.95,ENE,76,3.0,3.0,94,0.00,,,0.00,Wunderground v.1.15,2013-09-08 08:10:00,
2013-09-08 04:11:00,68.4,66.6,29.95,ENE,76,0.0,3.0,94,0.00,,,0.00,Wunderground v.1.15,2013-09-08 08:11:00,
2013-09-08 04:12:00,68.3,66.5,29.95,ENE,76,0.0,3.0,94,0.00,,,0.00,Wunderground v.1.15,2013-09-08 08:12:00,
2013-09-08 04:14:00,68.4,66.6,29.95,ENE,76,0.0,3.0,94,0.00,,,0.00,Wunderground v.1.15,2013-09-08 08:14:00,
2013-09-08 04:16:00,68.4,66.6,29.95,ENE,76,0.0,3.0,94,0.00,,,0.00,Wunderground v.1.15,2013-09-08 08:16:00,
2013-09-08 04:17:00,68.4,66.6,29.95,ENE,76,1.0,3.0,94,0.00,,,0.00,Wunderground v.1.15,2013-09-08 08:17:00,
2013-09-08 04:19:00,68.4,66.9,29.95,ENE,75,1.0,4.0,95,0.00,,,0.00,Wunderground v.1.15,2013-09-08 08:19:00,
2013-09-08 04:20:00,68.4,66.9,29.95,ENE,75,0.0,0.0,95,0.00,,,0.00,Wunderground v.1.15,2013-09-08 08:20:00,
2013-09-08 04:21:00,68.4,66.9,29.95,ENE,75,1.0,1.0,95,0.00,,,0.00,Wunderground v.1.15,2013-09-08 08:21:00,
2013-09-08 04:23:00,68.3,66.8,29.95,ENE,75,0.0,1.0,95,0.00,,,0.00,Wunderground v.1.15,2013-09-08 08:23:00,
2013-09-08 04:24:00,68.3,66.8,29.95,ENE,75,0.0,2.0,95,0.00,,,0.00,Wunderground v.1.15,2013-09-08 08:24:00,
2013-09-08 04:25:00,68.3,66.8,29.95,ENE,75,0.0,2.0,95,0.00,,,0.00,Wunderground v.1.15,2013-09-08 08:25:00,
2013-09-08 04:26:00,68.3,66.8,29.95,ENE,75,0.0,2.0,95,0.00,,,0.00,Wunderground v.1.15,2013-09-08 08:26:00,
2013-09-08 04:29:00,68.2,66.7,29.95,ENE,75,0.0,2.0,95,0.00,,,0.00,Wunderground v.1.15,2013-09-08 08:29:00,
2013-09-08 04:30:00,68.2,66.7,29.95,ENE,75,2.0,4.0,95,0.00,,,0.00,Wunderground v.1.15,2013-09-08 08:30:00,
2013-09-08 04:31:00,68.2,66.7,29.95,ENE,75,0.0,4.0,95,0.00,,,0.00,Wunderground v.1.15,2013-09-08 08:31:00,
2013-09-08 04:32:00,68.2,66.7,29.95,ENE,76,0.0,4.0,95,0.00,,,0.00,Wunderground v.1.15,2013-09-08 08:32:00,
2013-09-08 04:34:00,68.1,66.6,29.95,ENE,75,0.0,4.0,95,0.00,,,0.00,Wunderground v.1.15,2013-09-08 08:34:00,
2013-09-08 04:35:00,68.1,66.6,29.95,ENE,76,0.0,4.0,95,0.00,,,0.00,Wunderground v.1.15,2013-09-08 08:35:00,
2013-09-08 04:36:00,68.1,66.6,29.95,ENE,76,0.0,4.0,95,0.00,,,0.00,Wunderground v.1.15,2013-09-08 08:36:00,
2013-09-08 04:38:00,68.0,66.5,29.95,ENE,76,0.0,4.0,95,0.00,,,0.00,Wunderground v.1.15,2013-09-08 08:38:00,
2013-09-08 04:39:00,68.0,66.8,29.95,ENE,75,0.0,4.0,96,0.00,,,0.00,Wunderground v.1.15,2013-09-08 08:39:00,
2013-09-08 04:40:00,67.9,66.7,29.95,ENE,76,0.0,0.0,96,0.00,,,0.00,Wunderground v.1.15,2013-09-08 08:40:00,
2013-09-08 04:41:00,67.9,66.7,29.95,ENE,75,0.0,1.0,96,0.00,,,0.00,Wunderground v.1.15,2013-09-08 08:41:00,
2013-09-08 04:42:00,67.9,66.7,29.95,ENE,75,1.0,1.0,96,0.00,,,0.00,Wunderground v.1.15,2013-09-08 08:42:00,
2013-09-08 04:43:00,67.9,66.7,29.95,ENE,75,0.0,1.0,96,0.00,,,0.00,Wunderground v.1.15,2013-09-08 08:43:00,
2013-09-08 04:45:00,67.8,66.6,29.95,ENE,75,0.0,1.0,96,0.00,,,0.00,Wunderground v.1.15,2013-09-08 08:45:00,
2013-09-08 04:46:00,67.8,66.6,29.95,ENE,75,0.0,1.0,96,0.00,,,0.00,Wunderground v.1.15,2013-09-08 08:46:00,
2013-09-08 04:47:00,67.7,66.5,29.95,ENE,75,0.0,2.0,96,0.00,,,0.00,Wunderground v.1.15,2013-09-08 08:47:00,
2013-09-08 04:48:00,67.7,66.5,29.95,ENE,76,0.0,2.0,96,0.00,,,0.00,Wunderground v.1.15,2013-09-08 08:48:00,
2013-09-08 04:49:00,67.7,66.5,29.95,ENE,75,0.0,2.0,96,0.00,,,0.00,Wunderground v.1.15,2013-09-08 08:49:00,
2013-09-08 04:50:00,67.7,66.5,29.95,ENE,75,0.0,1.0,96,0.00,,,0.00,Wunderground v.1.15,2013-09-08 08:50:00,
2013-09-08 04:51:00,67.7,66.5,29.95,ENE,75,0.0,1.0,96,0.00,,,0.00,Wunderground v.1.15,2013-09-08 08:51:00,
2013-09-08 04:52:00,67.7,66.5,29.95,ENE,75,0.0,1.0,96,0.00,,,0.00,Wunderground v.1.15,2013-09-08 08:52:00,
2013-09-08 04:53:00,67.7,66.5,29.95,ENE,75,1.0,1.0,96,0.00,,,0.00,Wunderground v.1.15,2013-09-08 08:53:00,
2013-09-08 04:54:00,67.6,66.7,29.95,ENE,75,0.0,1.0,97,0.00,,,0.00,Wunderground v.1.15,2013-09-08 08:54:00,
2013-09-08 04:56:00,67.6,66.4,29.95,ENE,75,0.0,1.0,96,0.00,,,0.00,Wunderground v.1.15,2013-09-08 08:56:00,
2013-09-08 04:57:00,67.6,66.4,29.95,ENE,75,0.0,1.0,96,0.00,,,0.00,Wunderground v.1.15,2013-09-08 08:57:00,
2013-09-08 04:59:00,67.5,66.3,29.95,ENE,75,0.0,3.0,96,0.00,,,0.00,Wunderground v.1.15,2013-09-08 08:59:00,
2013-09-08 05:01:00,67.5,66.6,29.95,ENE,75,0.0,3.0,97,0.00,,,0.00,Wunderground v.1.15,2013-09-08 09:01:00,
2013-09-08 05:02:00,67.5,66.6,29.95,ENE,75,0.0,3.0,97,0.00,,,0.00,Wunderground v.1.15,2013-09-08 09:02:00,
2013-09-08 05:04:00,67.5,66.6,29.95,ENE,75,0.0,3.0,97,0.00,,,0.00,Wunderground v.1.15,2013-09-08 09:04:00,
2013-09-08 05:05:00,67.5,66.6,29.95,ENE,75,0.0,3.0,97,0.00,,,0.00,Wunderground v.1.15,2013-09-08 09:05:00,
2013-09-08 05:06:00,67.4,66.5,29.96,ENE,76,0.0,3.0,97,0.00,,,0.00,Wunderground v.1.15,2013-09-08 09:06:00,
2013-09-08 05:07:00,67.4,66.5,29.96,ENE,75,0.0,3.0,97,0.00,,,0.00,Wunderground v.1.15,2013-09-08 09:07:00,
2013-09-08 05:09:00,67.4,66.5,29.96,ENE,75,0.0,3.0,97,0.00,,,0.00,Wunderground v.1.15,2013-09-08 09:09:00,
2013-09-08 05:11:00,67.4,66.5,29.96,ENE,75,0.0,0.0,97,0.00,,,0.00,Wunderground v.1.15,2013-09-08 09:11:00,
2013-09-08 05:12:00,67.4,66.5,29.96,ENE,75,0.0,0.0,97,0.00,,,0.00,Wunderground v.1.15,2013-09-08 09:12:00,
2013-09-08 05:14:00,67.4,66.5,29.96,ENE,75,0.0,1.0,97,0.00,,,0.00,Wunderground v.1.15,2013-09-08 09:14:00,
2013-09-08 05:15:00,67.4,66.5,29.96,ENE,75,0.0,1.0,97,0.00,,,0.00,Wunderground v.1.15,2013-09-08 09:15:00,
2013-09-08 05:17:00,67.4,66.5,29.96,ENE,75,0.0,1.0,97,0.00,,,0.00,Wunderground v.1.15,2013-09-08 09:17:00,
2013-09-08 05:18:00,67.3,66.4,29.96,ENE,76,0.0,1.0,97,0.00,,,0.00,Wunderground v.1.15,2013-09-08 09:18:00,
2013-09-08 05:20:00,67.3,66.4,29.95,East,80,2.0,2.0,97,0.00,,,0.00,Wunderground v.1.15,2013-09-08 09:20:00,
2013-09-08 05:21:00,67.2,66.3,29.96,East,80,0.0,3.0,97,0.00,,,0.00,Wunderground v.1.15,2013-09-08 09:21:00,
2013-09-08 05:22:00,67.2,66.3,29.96,East,80,0.0,3.0,97,0.00,,,0.00,Wunderground v.1.15,2013-09-08 09:22:00,
2013-09-08 05:23:00,67.2,66.3,29.95,East,80,0.0,3.0,97,0.00,,,0.00,Wunderground v.1.15,2013-09-08 09:23:00,
2013-09-08 05:25:00,67.2,66.3,29.96,East,80,0.0,3.0,97,0.00,,,0.00,Wunderground v.1.15,2013-09-08 09:25:00,
2013-09-08 05:26:00,67.2,66.3,29.96,East,80,2.0,3.0,97,0.00,,,0.00,Wunderground v.1.15,2013-09-08 09:26:00,
2013-09-08 05:27:00,67.2,66.3,29.96,East,80,2.0,3.0,97,0.00,,,0.00,Wunderground v.1.15,2013-09-08 09:27:00,
2013-09-08 05:28:00,67.2,66.6,29.96,East,80,0.0,3.0,98,0.00,,,0.00,Wunderground v.1.15,2013-09-08 09:28:00,
2013-09-08 05:29:00,67.2,66.6,29.96,East,80,0.0,3.0,98,0.00,,,0.00,Wunderground v.1.15,2013-09-08 09:29:00,
2013-09-08 05:30:00,67.2,66.6,29.96,East,80,0.0,1.0,98,0.00,,,0.00,Wunderground v.1.15,2013-09-08 09:30:00,
2013-09-08 05:32:00,67.1,66.5,29.96,East,81,1.0,3.0,98,0.00,,,0.00,Wunderground v.1.15,2013-09-08 09:32:00,
2013-09-08 05:33:00,67.1,66.2,29.96,East,81,1.0,3.0,97,0.00,,,0.00,Wunderground v.1.15,2013-09-08 09:33:00,
2013-09-08 05:34:00,67.1,66.5,29.96,East,81,2.0,3.0,98,0.00,,,0.00,Wunderground v.1.15,2013-09-08 09:34:00,
2013-09-08 05:37:00,67.1,66.2,29.96,East,81,0.0,3.0,97,0.00,,,0.00,Wunderground v.1.15,2013-09-08 09:37:00,
2013-09-08 05:38:00,67.0,66.1,29.96,East,81,0.0,3.0,97,0.00,,,0.00,Wunderground v.1.15,2013-09-08 09:38:00,
2013-09-08 05:39:00,67.0,66.1,29.96,East,81,0.0,3.0,97,0.00,,,0.00,Wunderground v.1.15,2013-09-08 09:39:00,
2013-09-08 05:40:00,67.0,66.1,29.97,East,81,0.0,1.0,97,0.00,,,0.00,Wunderground v.1.15,2013-09-08 09:40:00,
2013-09-08 05:42:00,66.9,66.0,29.97,East,81,0.0,1.0,97,0.00,,,0.00,Wunderground v.1.15,2013-09-08 09:42:00,
2013-09-08 05:43:00,66.9,66.3,29.97,East,81,0.0,1.0,98,0.00,,,0.00,Wunderground v.1.15,2013-09-08 09:43:00,
2013-09-08 05:44:00,66.9,66.3,29.97,East,81,0.0,1.0,98,0.00,,,0.00,Wunderground v.1.15,2013-09-08 09:44:00,
2013-09-08 05:45:00,66.8,66.2,29.97,East,81,0.0,1.0,98,0.00,,,0.00,Wunderground v.1.15,2013-09-08 09:45:00,
2013-09-08 05:48:00,66.7,66.1,29.97,East,81,0.0,1.0,98,0.00,,,0.00,Wunderground v.1.15,2013-09-08 09:48:00,
2013-09-08 05:50:00,66.7,66.1,29.97,East,81,0.0,0.0,98,0.00,,,0.00,Wunderground v.1.15,2013-09-08 09:50:00,
2013-09-08 05:52:00,66.6,66.0,29.97,East,81,0.0,0.0,98,0.00,,,0.00,Wunderground v.1.15,2013-09-08 09:52:00,
2013-09-08 05:53:00,66.6,66.0,29.97,East,81,0.0,0.0,98,0.00,,,0.00,Wunderground v.1.15,2013-09-08 09:53:00,
2013-09-08 05:55:00,66.5,65.9,29.97,East,81,0.0,0.0,98,0.00,,,0.00,Wunderground v.1.15,2013-09-08 09:55:00,
2013-09-08 05:58:00,66.5,65.9,29.97,East,81,0.0,0.0,98,0.00,,,0.00,Wunderground v.1.15,2013-09-08 09:58:00,
2013-09-08 06:01:00,66.4,65.8,29.97,East,81,0.0,0.0,98,0.00,,,0.00,Wunderground v.1.15,2013-09-08 10:01:00,
2013-09-08 06:03:00,66.3,65.7,29.97,East,81,0.0,0.0,98,0.00,,,0.00,Wunderground v.1.15,2013-09-08 10:03:00,
2013-09-08 06:06:00,66.3,65.7,29.97,East,81,0.0,0.0,98,0.00,,,0.00,Wunderground v.1.15,2013-09-08 10:06:00,
2013-09-08 06:09:00,66.3,65.7,29.97,East,81,0.0,0.0,98,0.00,,,0.00,Wunderground v.1.15,2013-09-08 10:09:00,
2013-09-08 06:11:00,66.3,65.7,29.97,East,81,0.0,0.0,98,0.00,,,0.00,Wunderground v.1.15,2013-09-08 10:11:00,
2013-09-08 06:12:00,66.2,65.6,29.97,East,81,0.0,0.0,98,0.00,,,0.00,Wunderground v.1.15,2013-09-08 10:12:00,
2013-09-08 06:14:00,66.2,65.9,29.97,East,81,0.0,0.0,99,0.00,,,0.00,Wunderground v.1.15,2013-09-08 10:14:00,
2013-09-08 06:15:00,66.2,65.9,29.97,East,81,0.0,0.0,99,0.00,,,0.00,Wunderground v.1.15,2013-09-08 10:15:00,
2013-09-08 06:16:00,66.2,65.9,29.97,East,81,0.0,0.0,99,0.00,,,0.00,Wunderground v.1.15,2013-09-08 10:16:00,
2013-09-08 06:17:00,66.2,65.9,29.97,East,81,0.0,0.0,99,0.00,,,0.00,Wunderground v.1.15,2013-09-08 10:17:00,
2013-09-08 06:18:00,66.1,65.8,29.97,East,81,0.0,0.0,99,0.00,,,0.00,Wunderground v.1.15,2013-09-08 10:18:00,
2013-09-08 06:19:00,66.1,65.8,29.97,East,81,0.0,0.0,99,0.00,,,0.00,Wunderground v.1.15,2013-09-08 10:19:00,
2013-09-08 06:20:00,66.1,65.8,29.97,East,81,0.0,0.0,99,0.00,,,0.00,Wunderground v.1.15,2013-09-08 10:20:00,
2013-09-08 06:21:00,66.1,65.8,29.97,East,81,0.0,0.0,99,0.00,,,0.00,Wunderground v.1.15,2013-09-08 10:21:00,
2013-09-08 06:22:00,66.1,65.8,29.97,East,81,0.0,0.0,99,0.00,,,0.00,Wunderground v.1.15,2013-09-08 10:22:00,
2013-09-08 06:23:00,66.0,65.7,29.97,East,81,0.0,0.0,99,0.00,,,0.00,Wunderground v.1.15,2013-09-08 10:23:00,
2013-09-08 06:24:00,66.0,65.7,29.97,East,81,0.0,0.0,99,0.00,,,0.00,Wunderground v.1.15,2013-09-08 10:24:00,
2013-09-08 06:26:00,66.0,65.7,29.97,East,81,0.0,0.0,99,0.00,,,0.00,Wunderground v.1.15,2013-09-08 10:26:00,
2013-09-08 06:27:00,65.9,65.3,29.97,East,81,0.0,0.0,98,0.00,,,0.00,Wunderground v.1.15,2013-09-08 10:27:00,
2013-09-08 06:28:00,65.9,65.3,29.97,East,81,0.0,0.0,98,0.00,,,0.00,Wunderground v.1.15,2013-09-08 10:28:00,
2013-09-08 06:30:00,65.9,65.6,29.97,East,81,0.0,0.0,99,0.00,,,0.00,Wunderground v.1.15,2013-09-08 10:30:00,
2013-09-08 06:31:00,65.9,65.6,29.97,East,81,0.0,0.0,99,0.00,,,0.00,Wunderground v.1.15,2013-09-08 10:31:00,
2013-09-08 06:33:00,65.9,65.6,29.97,East,81,0.0,0.0,99,0.00,,,0.00,Wunderground v.1.15,2013-09-08 10:33:00,
2013-09-08 06:34:00,65.9,65.6,29.97,East,81,0.0,0.0,99,0.00,,,0.00,Wunderground v.1.15,2013-09-08 10:34:00,
2013-09-08 06:35:00,65.9,65.6,29.97,East,81,0.0,0.0,99,0.00,,,0.00,Wunderground v.1.15,2013-09-08 10:35:00,
2013-09-08 06:36:00,65.8,65.5,29.97,East,81,0.0,0.0,99,0.00,,,0.00,Wunderground v.1.15,2013-09-08 10:36:00,
2013-09-08 06:38:00,65.8,65.5,29.97,East,81,0.0,0.0,99,0.00,,,0.00,Wunderground v.1.15,2013-09-08 10:38:00,
2013-09-08 06:40:00,65.7,65.4,29.97,East,81,0.0,0.0,99,0.00,,,0.00,Wunderground v.1.15,2013-09-08 10:40:00,
2013-09-08 06:41:00,65.6,65.3,29.97,East,81,0.0,0.0,99,0.00,,,0.00,Wunderground v.1.15,2013-09-08 10:41:00,
2013-09-08 06:42:00,65.6,65.3,29.97,East,81,0.0,0.0,99,0.00,,,0.00,Wunderground v.1.15,2013-09-08 10:42:00,
2013-09-08 06:43:00,65.6,65.3,29.97,East,81,0.0,0.0,99,0.00,,,0.00,Wunderground v.1.15,2013-09-08 10:43:00,
2013-09-08 06:44:00,65.5,65.2,29.97,East,81,0.0,0.0,99,0.00,,,0.00,Wunderground v.1.15,2013-09-08 10:44:00,
2013-09-08 06:45:00,65.5,65.2,29.97,East,81,0.0,0.0,99,0.00,,,0.00,Wunderground v.1.15,2013-09-08 10:45:00,
2013-09-08 06:47:00,65.5,65.2,29.97,East,81,0.0,0.0,99,0.00,,,0.00,Wunderground v.1.15,2013-09-08 10:47:00,
2013-09-08 06:49:00,65.5,65.2,29.97,East,81,0.0,0.0,99,0.00,,,0.00,Wunderground v.1.15,2013-09-08 10:49:00,
2013-09-08 06:51:00,65.5,65.2,29.97,East,81,0.0,0.0,99,0.00,,,0.00,Wunderground v.1.15,2013-09-08 10:51:00,
2013-09-08 06:52:00,65.5,65.2,29.97,East,81,0.0,0.0,99,0.00,,,0.00,Wunderground v.1.15,2013-09-08 10:52:00,
2013-09-08 06:53:00,65.5,65.2,29.97,East,81,0.0,1.0,99,0.00,,,0.00,Wunderground v.1.15,2013-09-08 10:53:00,
2013-09-08 06:54:00,65.5,65.2,29.97,East,81,0.0,1.0,99,0.00,,,0.00,Wunderground v.1.15,2013-09-08 10:54:00,
2013-09-08 06:56:00,65.5,65.2,29.97,East,81,1.0,2.0,99,0.00,,,0.00,Wunderground v.1.15,2013-09-08 10:56:00,
2013-09-08 06:57:00,65.5,65.2,29.97,East,81,0.0,2.0,99,0.00,,,0.00,Wunderground v.1.15,2013-09-08 10:57:00,
2013-09-08 06:58:00,65.5,65.2,29.97,East,81,0.0,2.0,99,0.00,,,0.00,Wunderground v.1.15,2013-09-08 10:58:00,
2013-09-08 06:59:00,65.5,65.2,29.98,East,81,0.0,2.0,99,0.00,,,0.00,Wunderground v.1.15,2013-09-08 10:59:00,
2013-09-08 07:01:00,65.5,65.2,29.98,East,81,0.0,1.0,99,0.00,,,0.00,Wunderground v.1.15,2013-09-08 11:01:00,
2013-09-08 07:02:00,65.5,65.2,29.98,ENE,78,0.0,2.0,99,0.00,,,0.00,Wunderground v.1.15,2013-09-08 11:02:00,
2013-09-08 07:03:00,65.5,65.2,29.98,ENE,78,2.0,2.0,99,0.00,,,0.00,Wunderground v.1.15,2013-09-08 11:03:00,
2013-09-08 07:04:00,65.5,65.2,29.98,ENE,78,0.0,3.0,99,0.00,,,0.00,Wunderground v.1.15,2013-09-08 11:04:00,
2013-09-08 07:05:00,65.6,65.3,29.98,ENE,78,0.0,3.0,99,0.00,,,0.00,Wunderground v.1.15,2013-09-08 11:05:00,
2013-09-08 07:07:00,65.6,65.3,29.98,ENE,78,0.0,3.0,99,0.00,,,0.00,Wunderground v.1.15,2013-09-08 11:07:00,
2013-09-08 07:09:00,65.6,65.3,29.98,ENE,77,0.0,3.0,99,0.00,,,0.00,Wunderground v.1.15,2013-09-08 11:09:00,
2013-09-08 07:11:00,65.6,65.3,29.99,ENE,78,2.0,2.0,99,0.00,,,0.00,Wunderground v.1.15,2013-09-08 11:11:00,
2013-09-08 07:12:00,65.6,65.3,29.99,ENE,78,0.0,3.0,99,0.00,,,0.00,Wunderground v.1.15,2013-09-08 11:12:00,
2013-09-08 07:13:00,65.6,65.3,29.99,ENE,78,0.0,3.0,99,0.00,,,0.00,Wunderground v.1.15,2013-09-08 11:13:00,
2013-09-08 07:14:00,65.6,65.3,29.99,ENE,78,0.0,3.0,99,0.00,,,0.00,Wunderground v.1.15,2013-09-08 11:14:00,
2013-09-08 07:15:00,65.7,65.4,29.99,ENE,78,1.0,3.0,99,0.00,,,0.00,Wunderground v.1.15,2013-09-08 11:15:00,
2013-09-08 07:16:00,65.7,65.4,29.99,East,84,0.0,3.0,99,0.00,,,0.00,Wunderground v.1.15,2013-09-08 11:16:00,
2013-09-08 07:17:00,65.7,65.4,29.99,East,84,1.0,3.0,99,0.00,,,0.00,Wunderground v.1.15,2013-09-08 11:17:00,
2013-09-08 07:18:00,65.7,65.4,29.99,East,84,0.0,3.0,99,0.00,,,0.00,Wunderground v.1.15,2013-09-08 11:18:00,
2013-09-08 07:19:00,65.7,65.4,29.99,ESE,107,2.0,4.0,99,0.00,,,0.00,Wunderground v.1.15,2013-09-08 11:19:00,
2013-09-08 07:20:00,65.7,65.4,29.99,ESE,107,0.0,1.0,99,0.00,,,0.00,Wunderground v.1.15,2013-09-08 11:20:00,
2013-09-08 07:22:00,65.7,65.4,29.99,ESE,107,0.0,1.0,99,0.00,,,0.00,Wunderground v.1.15,2013-09-08 11:22:00,
2013-09-08 07:23:00,65.8,65.5,29.99,SE,128,2.0,3.0,99,0.00,,,0.00,Wunderground v.1.15,2013-09-08 11:23:00,
2013-09-08 07:24:00,65.8,65.5,29.99,ESE,120,2.0,3.0,99,0.00,,,0.00,Wunderground v.1.15,2013-09-08 11:24:00,
2013-09-08 07:26:00,65.8,65.5,29.99,ESE,120,0.0,3.0,99,0.00,,,0.00,Wunderground v.1.15,2013-09-08 11:26:00,
2013-09-08 07:27:00,65.8,65.5,29.99,ESE,120,0.0,3.0,99,0.00,,,0.00,Wunderground v.1.15,2013-09-08 11:27:00,
2013-09-08 07:28:00,65.8,65.5,29.99,ESE,120,1.0,3.0,99,0.00,,,0.00,Wunderground v.1.15,2013-09-08 11:28:00,
2013-09-08 07:29:00,65.7,65.4,30.00,ESE,120,0.0,3.0,99,0.00,,,0.00,Wunderground v.1.15,2013-09-08 11:29:00,
2013-09-08 07:31:00,65.7,65.4,30.00,ESE,120,0.0,0.0,99,0.00,,,0.00,Wunderground v.1.15,2013-09-08 11:31:00,
2013-09-08 07:32:00,65.7,65.4,30.00,ESE,120,0.0,0.0,99,0.00,,,0.00,Wunderground v.1.15,2013-09-08 11:32:00,
2013-09-08 07:33:00,65.7,65.4,30.00,ESE,120,0.0,0.0,99,0.00,,,0.00,Wunderground v.1.15,2013-09-08 11:33:00,
2013-09-08 07:34:00,65.7,65.4,30.00,ESE,120,0.0,1.0,99,0.00,,,0.00,Wunderground v.1.15,2013-09-08 11:34:00,
2013-09-08 07:35:00,65.7,65.4,30.00,ESE,118,0.0,4.0,99,0.00,,,0.00,Wunderground v.1.15,2013-09-08 11:35:00,
2013-09-08 07:37:00,65.7,65.4,30.00,ESE,118,1.0,4.0,99,0.00,,,0.00,Wunderground v.1.15,2013-09-08 11:37:00,
2013-09-08 07:39:00,65.7,65.4,30.00,ESE,117,2.0,4.0,99,0.00,,,0.00,Wunderground v.1.15,2013-09-08 11:39:00,
2013-09-08 07:40:00,65.7,65.4,30.00,ESE,117,0.0,4.0,99,0.00,,,0.00,Wunderground v.1.15,2013-09-08 11:40:00,
2013-09-08 07:41:00,65.8,65.5,30.00,ESE,114,2.0,4.0,99,0.00,,,0.00,Wunderground v.1.15,2013-09-08 11:41:00,
2013-09-08 07:42:00,65.8,65.5,30.00,ESE,110,3.0,4.0,99,0.00,,,0.00,Wunderground v.1.15,2013-09-08 11:42:00,
2013-09-08 07:44:00,65.8,65.5,30.00,ENE,74,2.0,6.0,99,0.00,,,0.00,Wunderground v.1.15,2013-09-08 11:44:00,
2013-09-08 07:45:00,65.9,65.6,30.00,East,97,5.0,6.0,99,0.00,,,0.00,Wunderground v.1.15,2013-09-08 11:45:00,
2013-09-08 07:46:00,65.9,65.6,30.00,ESE,106,3.0,6.0,99,0.00,,,0.00,Wunderground v.1.15,2013-09-08 11:46:00,
2013-09-08 07:48:00,65.9,65.6,30.00,ENE,71,2.0,9.0,99,0.00,,,0.00,Wunderground v.1.15,2013-09-08 11:48:00,
2013-09-08 07:49:00,65.9,65.6,30.00,ESE,103,2.0,9.0,99,0.00,,,0.00,Wunderground v.1.15,2013-09-08 11:49:00,
2013-09-08 07:50:00,65.9,65.6,30.00,ESE,103,3.0,3.0,99,0.00,,,0.00,Wunderground v.1.15,2013-09-08 11:50:00,
2013-09-08 07:52:00,66.0,65.7,29.99,ESE,123,3.0,4.0,99,0.00,,,0.00,Wunderground v.1.15,2013-09-08 11:52:00,
2013-09-08 07:53:00,66.0,65.7,29.99,ENE,71,3.0,6.0,99,0.00,,,0.00,Wunderground v.1.15,2013-09-08 11:53:00,
2013-09-08 07:54:00,66.0,65.7,30.00,East,85,0.0,7.0,99,0.00,,,0.00,Wunderground v.1.15,2013-09-08 11:54:00,
2013-09-08 07:55:00,66.0,65.7,30.00,ESE,110,2.0,7.0,99,0.00,,,0.00,Wunderground v.1.15,2013-09-08 11:55:00,
2013-09-08 07:56:00,66.1,65.8,30.00,ENE,74,1.0,7.0,99,0.00,,,0.00,Wunderground v.1.15,2013-09-08 11:56:00,
2013-09-08 07:57:00,66.1,65.8,30.00,East,90,2.0,7.0,99,0.00,,,0.00,Wunderground v.1.15,2013-09-08 11:57:00,
2013-09-08 07:58:00,66.1,65.8,30.00,East,91,0.0,7.0,99,0.00,,,0.00,Wunderground v.1.15,2013-09-08 11:58:00,
2013-09-08 08:00:00,66.1,65.8,30.00,East,98,3.0,7.0,99,0.00,,,0.00,Wunderground v.1.15,2013-09-08 12:00:00,
2013-09-08 08:01:00,66.1,65.8,30.00,East,98,1.0,7.0,99,0.00,,,0.00,Wunderground v.1.15,2013-09-08 12:01:00,
2013-09-08 08:02:00,66.1,65.8,30.00,East,84,0.0,7.0,99,0.00,,,0.00,Wunderground v.1.15,2013-09-08 12:02:00,
2013-09-08 08:03:00,66.2,65.9,29.99,ESE,108,0.0,7.0,99,0.00,,,0.00,Wunderground v.1.15,2013-09-08 12:03:00,
2013-09-08 08:06:00,66.2,65.9,29.99,ESE,103,4.0,7.0,99,0.00,,,0.00,Wunderground v.1.15,2013-09-08 12:06:00,
2013-09-08 08:07:00,66.2,65.9,30.00,East,100,2.0,7.0,99,0.00,,,0.00,Wunderground v.1.15,2013-09-08 12:07:00,
2013-09-08 08:08:00,66.2,65.9,29.99,East,98,3.0,7.0,99,0.00,,,0.00,Wunderground v.1.15,2013-09-08 12:08:00,
2013-09-08 08:09:00,66.3,66.0,29.99,East,99,3.0,7.0,99,0.00,,,0.00,Wunderground v.1.15,2013-09-08 12:09:00,
2013-09-08 08:11:00,66.3,66.0,30.00,East,99,3.0,3.0,99,0.00,,,0.00,Wunderground v.1.15,2013-09-08 12:11:00,
2013-09-08 08:12:00,66.3,66.0,30.00,ENE,68,3.0,6.0,99,0.00,,,0.00,Wunderground v.1.15,2013-09-08 12:12:00,
2013-09-08 08:13:00,66.4,66.1,29.99,East,100,0.0,6.0,99,0.00,,,0.00,Wunderground v.1.15,2013-09-08 12:13:00,
2013-09-08 08:14:00,66.4,66.1,29.99,East,100,1.0,6.0,99,0.00,,,0.00,Wunderground v.1.15,2013-09-08 12:14:00,
2013-09-08 08:16:00,66.4,66.1,30.00,East,100,3.0,6.0,99,0.00,,,0.00,Wunderground v.1.15,2013-09-08 12:16:00,
2013-09-08 08:17:00,66.4,66.1,30.00,East,94,5.0,6.0,99,0.00,,,0.00,Wunderground v.1.15,2013-09-08 12:17:00,
2013-09-08 08:19:00,66.5,66.2,30.00,SE,135,1.0,6.0,99,0.00,,,0.00,Wunderground v.1.15,2013-09-08 12:19:00,
2013-09-08 08:20:00,66.5,66.2,30.00,SE,132,0.0,6.0,99,0.00,,,0.00,Wunderground v.1.15,2013-09-08 12:20:00,
2013-09-08 08:21:00,66.6,66.3,30.00,SE,132,0.0,2.0,99,0.00,,,0.00,Wunderground v.1.15,2013-09-08 12:21:00,
2013-09-08 08:22:00,66.6,66.3,30.00,ESE,106,2.0,5.0,99,0.00,,,0.00,Wunderground v.1.15,2013-09-08 12:22:00,
2013-09-08 08:24:00,66.7,66.4,30.00,ENE,75,0.0,5.0,99,0.00,,,0.00,Wunderground v.1.15,2013-09-08 12:24:00,
2013-09-08 08:25:00,66.7,66.4,30.00,SSE,165,0.0,5.0,99,0.00,,,0.00,Wunderground v.1.15,2013-09-08 12:25:00,
2013-09-08 08:26:00,66.8,66.2,30.00,SE,126,0.0,5.0,98,0.00,,,0.00,Wunderground v.1.15,2013-09-08 12:26:00,
2013-09-08 08:27:00,66.8,66.2,30.00,SE,126,0.0,5.0,98,0.00,,,0.00,Wunderground v.1.15,2013-09-08 12:27:00,
2013-09-08 08:29:00,66.8,66.2,30.00,ENE,76,3.0,5.0,98,0.00,,,0.00,Wunderground v.1.15,2013-09-08 12:29:00,
2013-09-08 08:30:00,66.8,66.2,30.00,East,97,0.0,1.0,98,0.00,,,0.00,Wunderground v.1.15,2013-09-08 12:30:00,
2013-09-08 08:31:00,66.8,66.2,30.00,ENE,64,3.0,3.0,98,0.00,,,0.00,Wunderground v.1.15,2013-09-08 12:31:00,
2013-09-08 08:33:00,66.8,66.2,30.01,East,92,1.0,5.0,98,0.00,,,0.00,Wunderground v.1.15,2013-09-08 12:33:00,
2013-09-08 08:34:00,66.9,66.3,30.01,East,94,3.0,5.0,98,0.00,,,0.00,Wunderground v.1.15,2013-09-08 12:34:00,
2013-09-08 08:36:00,66.9,66.3,30.01,East,95,0.0,5.0,98,0.00,,,0.00,Wunderground v.1.15,2013-09-08 12:36:00,
2013-09-08 08:38:00,66.9,66.3,30.01,ESE,109,0.0,5.0,98,0.00,,,0.00,Wunderground v.1.15,2013-09-08 12:38:00,
2013-09-08 08:40:00,67.0,66.4,30.01,ESE,109,0.0,1.0,98,0.00,,,0.00,Wunderground v.1.15,2013-09-08 12:40:00,
2013-09-08 08:41:00,67.1,66.5,30.01,ESE,117,0.0,2.0,98,0.00,,,0.00,Wunderground v.1.15,2013-09-08 12:41:00,
2013-09-08 08:42:00,67.1,66.5,30.01,ESE,117,0.0,2.0,98,0.00,,,0.00,Wunderground v.1.15,2013-09-08 12:42:00,
2013-09-08 08:43:00,67.1,66.5,30.01,ESE,108,4.0,5.0,98,0.00,,,0.00,Wunderground v.1.15,2013-09-08 12:43:00,
2013-09-08 08:44:00,67.1,66.5,30.01,ESE,109,2.0,5.0,98,0.00,,,0.00,Wunderground v.1.15,2013-09-08 12:44:00,
2013-09-08 08:45:00,67.2,66.6,30.01,East,93,2.0,5.0,98,0.00,,,0.00,Wunderground v.1.15,2013-09-08 12:45:00,
2013-09-08 08:47:00,67.2,66.6,30.01,East,83,5.0,6.0,98,0.00,,,0.00,Wunderground v.1.15,2013-09-08 12:47:00,
2013-09-08 08:49:00,67.2,66.6,30.01,East,90,1.0,6.0,98,0.00,,,0.00,Wunderground v.1.15,2013-09-08 12:49:00,
2013-09-08 08:50:00,67.3,66.7,30.01,ENE,69,2.0,2.0,98,0.00,,,0.00,Wunderground v.1.15,2013-09-08 12:50:00,
2013-09-08 08:52:00,67.3,66.4,30.01,SE,136,3.0,4.0,97,0.00,,,0.00,Wunderground v.1.15,2013-09-08 12:52:00,
2013-09-08 08:54:00,67.4,66.5,30.01,ESE,119,3.0,4.0,97,0.00,,,0.00,Wunderground v.1.15,2013-09-08 12:54:00,
2013-09-08 08:55:00,67.4,66.5,30.01,SE,128,2.0,4.0,97,0.00,,,0.00,Wunderground v.1.15,2013-09-08 12:55:00,
2013-09-08 08:57:00,67.4,66.5,30.01,ESE,108,0.0,4.0,97,0.00,,,0.00,Wunderground v.1.15,2013-09-08 12:57:00,
2013-09-08 08:58:00,67.4,66.5,30.01,ESE,117,2.0,4.0,97,0.00,,,0.00,Wunderground v.1.15,2013-09-08 12:58:00,
2013-09-08 08:59:00,67.5,66.6,30.01,NE,53,7.0,8.0,97,0.00,,,0.00,Wunderground v.1.15,2013-09-08 12:59:00,
2013-09-08 09:00:00,67.5,66.6,30.01,ENE,67,5.0,8.0,97,0.00,,,0.00,Wunderground v.1.15,2013-09-08 13:00:00,
2013-09-08 09:01:00,67.5,66.6,30.01,ESE,121,5.0,9.0,97,0.00,,,0.00,Wunderground v.1.15,2013-09-08 13:01:00,
2013-09-08 09:02:00,67.5,66.6,30.01,East,82,4.0,9.0,97,0.00,,,0.00,Wunderground v.1.15,2013-09-08 13:02:00,
2013-09-08 09:03:00,67.5,66.6,30.01,ESE,107,3.0,9.0,97,0.00,,,0.00,Wunderground v.1.15,2013-09-08 13:03:00,
2013-09-08 09:04:00,67.5,66.3,30.01,ESE,108,0.0,9.0,96,0.00,,,0.00,Wunderground v.1.15,2013-09-08 13:04:00,
2013-09-08 09:05:00,67.5,66.6,30.01,ENE,57,4.0,9.0,97,0.00,,,0.00,Wunderground v.1.15,2013-09-08 13:05:00,
2013-09-08 09:07:00,67.6,66.7,30.01,East,85,2.0,9.0,97,0.00,,,0.00,Wunderground v.1.15,2013-09-08 13:07:00,
2013-09-08 09:09:00,67.6,66.7,30.01,ESE,115,1.0,9.0,97,0.00,,,0.00,Wunderground v.1.15,2013-09-08 13:09:00,
2013-09-08 09:10:00,67.7,66.8,30.01,ESE,112,1.0,3.0,97,0.00,,,0.00,Wunderground v.1.15,2013-09-08 13:10:00,
2013-09-08 09:11:00,67.6,66.7,30.01,ESE,112,3.0,3.0,97,0.00,,,0.00,Wunderground v.1.15,2013-09-08 13:11:00,
2013-09-08 09:12:00,67.7,66.8,30.01,East,97,2.0,4.0,97,0.00,,,0.00,Wunderground v.1.15,2013-09-08 13:12:00,
2013-09-08 09:14:00,67.7,66.8,30.01,ESE,107,3.0,4.0,97,0.00,,,0.00,Wunderground v.1.15,2013-09-08 13:14:00,
2013-09-08 09:15:00,67.7,66.8,30.01,ESE,107,3.0,4.0,97,0.00,,,0.00,Wunderground v.1.15,2013-09-08 13:15:00,
2013-09-08 09:16:00,67.7,66.8,30.01,East,98,3.0,4.0,97,0.00,,,0.00,Wunderground v.1.15,2013-09-08 13:16:00,
2013-09-08 09:17:00,67.8,66.6,30.01,ENE,73,3.0,4.0,96,0.00,,,0.00,Wunderground v.1.15,2013-09-08 13:17:00,
2013-09-08 09:18:00,67.8,66.6,30.01,East,101,3.0,6.0,96,0.00,,,0.00,Wunderground v.1.15,2013-09-08 13:18:00,
2013-09-08 09:20:00,67.8,66.6,30.01,ESE,110,0.0,2.0,96,0.00,,,0.00,Wunderground v.1.15,2013-09-08 13:20:00,
2013-09-08 09:21:00,67.9,66.7,30.01,ESE,110,2.0,2.0,96,0.00,,,0.00,Wunderground v.1.15,2013-09-08 13:21:00,
2013-09-08 09:22:00,67.9,67.0,30.00,East,87,2.0,3.0,97,0.00,,,0.00,Wunderground v.1.15,2013-09-08 13:22:00,
2013-09-08 09:24:00,68.1,67.2,30.00,East,94,4.0,4.0,97,0.00,,,0.00,Wunderground v.1.15,2013-09-08 13:24:00,
2013-09-08 09:25:00,68.3,67.1,30.00,ESE,102,1.0,4.0,96,0.00,,,0.00,Wunderground v.1.15,2013-09-08 13:25:00,
2013-09-08 09:26:00,68.3,67.1,30.00,ESE,102,1.0,4.0,96,0.00,,,0.00,Wunderground v.1.15,2013-09-08 13:26:00,
2013-09-08 09:27:00,68.5,67.3,30.00,ESE,107,0.0,4.0,96,0.00,,,0.00,Wunderground v.1.15,2013-09-08 13:27:00,
2013-09-08 09:29:00,68.7,67.5,30.00,ESE,108,3.0,4.0,96,0.00,,,0.00,Wunderground v.1.15,2013-09-08 13:29:00,
2013-09-08 09:31:00,69.0,67.8,30.00,ESE,112,2.0,4.0,96,0.00,,,0.00,Wunderground v.1.15,2013-09-08 13:31:00,
2013-09-08 09:32:00,69.1,67.6,30.00,ESE,103,2.0,8.0,95,0.00,,,0.00,Wunderground v.1.15,2013-09-08 13:32:00,
2013-09-08 09:33:00,69.1,67.6,30.00,ESE,105,3.0,8.0,95,0.00,,,0.00,Wunderground v.1.15,2013-09-08 13:33:00,
2013-09-08 09:36:00,69.3,67.5,30.00,ESE,109,2.0,8.0,94,0.00,,,0.00,Wunderground v.1.15,2013-09-08 13:36:00,
2013-09-08 09:37:00,69.4,67.9,30.00,ESE,109,0.0,8.0,95,0.00,,,0.00,Wunderground v.1.15,2013-09-08 13:37:00,
2013-09-08 09:38:00,69.4,67.9,30.00,ESE,103,1.0,8.0,95,0.00,,,0.00,Wunderground v.1.15,2013-09-08 13:38:00,
2013-09-08 09:39:00,69.5,67.7,30.00,ESE,108,4.0,8.0,94,0.00,,,0.00,Wunderground v.1.15,2013-09-08 13:39:00,
2013-09-08 09:41:00,69.7,67.9,30.00,ESE,121,4.0,9.0,94,0.00,,,0.00,Wunderground v.1.15,2013-09-08 13:41:00,
2013-09-08 09:42:00,69.7,67.6,30.00,ESE,113,1.0,9.0,93,0.00,,,0.00,Wunderground v.1.15,2013-09-08 13:42:00,
2013-09-08 09:43:00,69.7,67.6,30.00,ESE,111,3.0,9.0,93,0.00,,,0.00,Wunderground v.1.15,2013-09-08 13:43:00,
2013-09-08 09:45:00,69.8,67.7,30.00,East,101,3.0,9.0,93,0.00,,,0.00,Wunderground v.1.15,2013-09-08 13:45:00,
2013-09-08 09:46:00,69.8,67.7,30.00,ESE,119,3.0,9.0,93,0.00,,,0.00,Wunderground v.1.15,2013-09-08 13:46:00,
2013-09-08 09:47:00,69.8,67.7,30.00,ESE,102,2.0,9.0,93,0.00,,,0.00,Wunderground v.1.15,2013-09-08 13:47:00,
2013-09-08 09:48:00,69.8,67.7,30.00,ESE,110,3.0,9.0,93,0.00,,,0.00,Wunderground v.1.15,2013-09-08 13:48:00,
2013-09-08 09:51:00,69.8,67.4,30.00,ESE,122,5.0,6.0,92,0.00,,,0.00,Wunderground v.1.15,2013-09-08 13:51:00,
2013-09-08 09:52:00,69.8,67.4,30.00,SE,129,3.0,7.0,92,0.00,,,0.00,Wunderground v.1.15,2013-09-08 13:52:00,
2013-09-08 09:53:00,69.7,67.3,30.00,ESE,115,3.0,7.0,92,0.00,,,0.00,Wunderground v.1.15,2013-09-08 13:53:00,
2013-09-08 09:54:00,69.7,67.3,30.00,ESE,103,5.0,7.0,92,0.00,,,0.00,Wunderground v.1.15,2013-09-08 13:54:00,
2013-09-08 09:57:00,69.7,67.3,30.00,ESE,114,3.0,8.0,92,0.00,,,0.00,Wunderground v.1.15,2013-09-08 13:57:00,
2013-09-08 09:58:00,69.7,67.6,30.00,ESE,114,3.0,8.0,93,0.00,,,0.00,Wunderground v.1.15,2013-09-08 13:58:00,
2013-09-08 10:00:00,69.8,67.7,30.00,ESE,106,2.0,8.0,93,0.00,,,0.00,Wunderground v.1.15,2013-09-08 14:00:00,
2013-09-08 10:03:00,69.9,67.8,30.00,ESE,112,3.0,6.0,93,0.00,,,0.00,Wunderground v.1.15,2013-09-08 14:03:00,
2013-09-08 10:04:00,70.0,67.9,30.00,ESE,106,3.0,6.0,93,0.00,,,0.00,Wunderground v.1.15,2013-09-08 14:04:00,
2013-09-08 10:05:00,70.0,67.6,30.00,ESE,107,3.0,6.0,92,0.00,,,0.00,Wunderground v.1.15,2013-09-08 14:05:00,
2013-09-08 10:08:00,70.2,68.1,30.00,ESE,107,3.0,6.0,93,0.00,,,0.00,Wunderground v.1.15,2013-09-08 14:08:00,
2013-09-08 10:09:00,70.2,67.8,30.00,ESE,106,3.0,6.0,92,0.00,,,0.00,Wunderground v.1.15,2013-09-08 14:09:00,
2013-09-08 10:12:00,70.4,68.0,30.00,ESE,118,2.0,5.0,92,0.00,,,0.00,Wunderground v.1.15,2013-09-08 14:12:00,
2013-09-08 10:13:00,70.4,68.0,30.00,ESE,113,3.0,5.0,92,0.00,,,0.00,Wunderground v.1.15,2013-09-08 14:13:00,
2013-09-08 10:14:00,70.4,68.0,30.00,ESE,113,0.0,5.0,92,0.00,,,0.00,Wunderground v.1.15,2013-09-08 14:14:00,
2013-09-08 10:15:00,70.5,68.1,30.01,ESE,113,2.0,5.0,92,0.00,,,0.00,Wunderground v.1.15,2013-09-08 14:15:00,
2013-09-08 10:17:00,70.7,68.3,30.01,East,100,3.0,8.0,92,0.00,,,0.00,Wunderground v.1.15,2013-09-08 14:17:00,
2013-09-08 10:19:00,70.7,67.9,30.01,ESE,115,2.0,8.0,91,0.00,,,0.00,Wunderground v.1.15,2013-09-08 14:19:00,
2013-09-08 10:20:00,70.8,68.4,30.01,ESE,113,5.0,5.0,92,0.00,,,0.00,Wunderground v.1.15,2013-09-08 14:20:00,
2013-09-08 10:22:00,70.8,68.0,30.01,ESE,107,2.0,5.0,91,0.00,,,0.00,Wunderground v.1.15,2013-09-08 14:22:00,
2013-09-08 10:24:00,70.9,68.1,30.01,SE,124,3.0,6.0,91,0.00,,,0.00,Wunderground v.1.15,2013-09-08 14:24:00,
2013-09-08 10:25:00,71.0,68.2,30.01,SE,124,1.0,6.0,91,0.00,,,0.00,Wunderground v.1.15,2013-09-08 14:25:00,
2013-09-08 10:26:00,71.0,68.2,30.01,SE,126,3.0,6.0,91,0.00,,,0.00,Wunderground v.1.15,2013-09-08 14:26:00,
2013-09-08 10:28:00,71.0,67.9,30.01,ESE,110,2.0,6.0,90,0.00,,,0.00,Wunderground v.1.15,2013-09-08 14:28:00,
2013-09-08 10:29:00,71.1,68.0,30.01,SE,136,2.0,6.0,90,0.00,,,0.00,Wunderground v.1.15,2013-09-08 14:29:00,
2013-09-08 10:30:00,71.1,68.3,30.01,SE,128,2.0,4.0,91,0.00,,,0.00,Wunderground v.1.15,2013-09-08 14:30:00,
2013-09-08 10:31:00,71.2,68.1,30.01,ESE,114,3.0,8.0,90,0.00,,,0.00,Wunderground v.1.15,2013-09-08 14:31:00,
2013-09-08 10:33:00,71.2,67.8,30.01,ESE,110,0.0,8.0,89,0.00,,,0.00,Wunderground v.1.15,2013-09-08 14:33:00,
2013-09-08 10:34:00,71.3,68.2,30.01,ESE,110,2.0,8.0,90,0.00,,,0.00,Wunderground v.1.15,2013-09-08 14:34:00,
2013-09-08 10:35:00,71.3,68.2,30.01,East,100,5.0,8.0,90,0.00,,,0.00,Wunderground v.1.15,2013-09-08 14:35:00,
2013-09-08 10:37:00,71.4,68.0,30.01,ESE,115,4.0,8.0,89,0.00,,,0.00,Wunderground v.1.15,2013-09-08 14:37:00,
2013-09-08 10:38:00,71.4,68.0,30.01,ESE,118,4.0,8.0,89,0.00,,,0.00,Wunderground v.1.15,2013-09-08 14:38:00,
2013-09-08 10:39:00,71.4,68.0,30.01,East,79,6.0,8.0,89,0.00,,,0.00,Wunderground v.1.15,2013-09-08 14:39:00,
2013-09-08 10:40:00,71.4,67.7,30.01,East,100,3.0,4.0,88,0.00,,,0.00,Wunderground v.1.15,2013-09-08 14:40:00,
2013-09-08 10:42:00,71.3,67.9,30.01,East,100,2.0,5.0,89,0.00,,,0.00,Wunderground v.1.15,2013-09-08 14:42:00,
2013-09-08 10:44:00,71.4,68.0,30.01,East,86,1.0,5.0,89,0.00,,,0.00,Wunderground v.1.15,2013-09-08 14:44:00,
2013-09-08 10:45:00,71.5,68.1,30.01,ESE,108,4.0,5.0,89,0.00,,,0.00,Wunderground v.1.15,2013-09-08 14:45:00,
2013-09-08 10:48:00,71.7,68.3,30.01,ESE,120,2.0,6.0,89,0.00,,,0.00,Wunderground v.1.15,2013-09-08 14:48:00,
2013-09-08 10:49:00,71.7,68.0,30.01,ESE,103,2.0,6.0,88,0.00,,,0.00,Wunderground v.1.15,2013-09-08 14:49:00,
2013-09-08 10:50:00,71.8,68.4,30.01,ESE,120,0.0,4.0,89,0.00,,,0.00,Wunderground v.1.15,2013-09-08 14:50:00,
2013-09-08 10:51:00,71.9,68.8,30.01,ESE,119,2.0,4.0,90,0.00,,,0.00,Wunderground v.1.15,2013-09-08 14:51:00,
2013-09-08 10:53:00,72.2,68.4,30.01,ESE,104,2.0,4.0,88,0.00,,,0.00,Wunderground v.1.15,2013-09-08 14:53:00,
2013-09-08 10:54:00,72.3,68.5,30.01,ESE,111,3.0,4.0,88,0.00,,,0.00,Wunderground v.1.15,2013-09-08 14:54:00,
2013-09-08 10:55:00,72.3,68.5,30.01,East,101,5.0,5.0,88,0.00,,,0.00,Wunderground v.1.15,2013-09-08 14:55:00,
2013-09-08 10:56:00,72.3,68.2,30.01,ESE,114,3.0,6.0,87,0.00,,,0.00,Wunderground v.1.15,2013-09-08 14:56:00,
2013-09-08 10:59:00,72.2,68.1,30.01,East,94,1.0,6.0,87,0.00,,,0.00,Wunderground v.1.15,2013-09-08 14:59:00,
2013-09-08 11:00:00,72.3,68.2,30.01,SE,124,0.0,3.0,87,0.00,,,0.00,Wunderground v.1.15,2013-09-08 15:00:00,
2013-09-08 11:01:00,72.3,68.2,30.01,ESE,117,0.0,4.0,87,0.00,,,0.00,Wunderground v.1.15,2013-09-08 15:01:00,
2013-09-08 11:02:00,72.4,68.3,30.01,ESE,117,4.0,5.0,87,0.00,,,0.00,Wunderground v.1.15,2013-09-08 15:02:00,
2013-09-08 11:04:00,72.4,68.0,30.01,East,91,5.0,5.0,86,0.00,,,0.00,Wunderground v.1.15,2013-09-08 15:04:00,
2013-09-08 11:06:00,72.4,68.0,30.01,East,96,2.0,5.0,86,0.00,,,0.00,Wunderground v.1.15,2013-09-08 15:06:00,
2013-09-08 11:07:00,72.3,68.2,30.01,ESE,109,2.0,5.0,87,0.00,,,0.00,Wunderground v.1.15,2013-09-08 15:07:00,
2013-09-08 11:09:00,72.3,68.2,30.01,ESE,113,0.0,5.0,87,0.00,,,0.00,Wunderground v.1.15,2013-09-08 15:09:00,
2013-09-08 11:11:00,72.3,68.5,30.01,ESE,113,1.0,2.0,88,0.00,,,0.00,Wunderground v.1.15,2013-09-08 15:11:00,
2013-09-08 11:12:00,72.4,68.6,30.02,ESE,103,2.0,3.0,88,0.00,,,0.00,Wunderground v.1.15,2013-09-08 15:12:00,
2013-09-08 11:14:00,72.4,68.3,30.02,ESE,118,2.0,4.0,87,0.00,,,0.00,Wunderground v.1.15,2013-09-08 15:14:00,
2013-09-08 11:16:00,72.3,68.2,30.02,ESE,103,5.0,5.0,87,0.00,,,0.00,Wunderground v.1.15,2013-09-08 15:16:00,
2013-09-08 11:17:00,72.3,67.9,30.02,ENE,67,2.0,11.0,86,0.00,,,0.00,Wunderground v.1.15,2013-09-08 15:17:00,
2013-09-08 11:19:00,72.1,67.3,30.02,SSE,159,1.0,11.0,85,0.00,,,0.00,Wunderground v.1.15,2013-09-08 15:19:00,
2013-09-08 11:21:00,72.0,67.9,30.02,ESE,111,0.0,4.0,87,0.00,,,0.00,Wunderground v.1.15,2013-09-08 15:21:00,
2013-09-08 11:22:00,72.0,67.9,30.02,ESE,109,1.0,4.0,87,0.00,,,0.00,Wunderground v.1.15,2013-09-08 15:22:00,
2013-09-08 11:24:00,72.0,68.2,30.02,ESE,107,1.0,4.0,88,0.00,,,0.00,Wunderground v.1.15,2013-09-08 15:24:00,
2013-09-08 11:25:00,72.0,67.6,30.02,ESE,117,3.0,5.0,86,0.00,,,0.00,Wunderground v.1.15,2013-09-08 15:25:00,
2013-09-08 11:26:00,72.0,67.9,30.02,ESE,105,3.0,5.0,87,0.00,,,0.00,Wunderground v.1.15,2013-09-08 15:26:00,
2013-09-08 11:27:00,72.0,67.9,30.02,ESE,112,5.0,5.0,87,0.00,,,0.00,Wunderground v.1.15,2013-09-08 15:27:00,
2013-09-08 11:29:00,72.0,67.6,30.02,ESE,119,2.0,5.0,86,0.00,,,0.00,Wunderground v.1.15,2013-09-08 15:29:00,
2013-09-08 11:30:00,72.0,67.6,30.02,ESE,111,2.0,2.0,86,0.00,,,0.00,Wunderground v.1.15,2013-09-08 15:30:00,
2013-09-08 11:31:00,72.1,67.7,30.02,ESE,112,2.0,5.0,86,0.00,,,0.00,Wunderground v.1.15,2013-09-08 15:31:00,
2013-09-08 11:32:00,72.1,67.7,30.02,ESE,116,2.0,5.0,86,0.00,,,0.00,Wunderground v.1.15,2013-09-08 15:32:00,
2013-09-08 11:33:00,72.1,67.3,30.02,ENE,78,5.0,6.0,85,0.00,,,0.00,Wunderground v.1.15,2013-09-08 15:33:00,
2013-09-08 11:34:00,72.0,67.2,30.02,ESE,121,3.0,6.0,85,0.00,,,0.00,Wunderground v.1.15,2013-09-08 15:34:00,
2013-09-08 11:35:00,72.0,67.2,30.02,ESE,117,1.0,6.0,85,0.00,,,0.00,Wunderground v.1.15,2013-09-08 15:35:00,
2013-09-08 11:36:00,72.0,67.6,30.02,ESE,113,4.0,6.0,86,0.00,,,0.00,Wunderground v.1.15,2013-09-08 15:36:00,
2013-09-08 11:37:00,71.9,67.1,30.02,East,88,2.0,6.0,85,0.00,,,0.00,Wunderground v.1.15,2013-09-08 15:37:00,
2013-09-08 11:38:00,71.9,67.1,30.02,East,92,2.0,6.0,85,0.00,,,0.00,Wunderground v.1.15,2013-09-08 15:38:00,
2013-09-08 11:39:00,71.9,67.8,30.02,ESE,122,2.0,7.0,87,0.00,,,0.00,Wunderground v.1.15,2013-09-08 15:39:00,
2013-09-08 11:40:00,72.0,67.9,30.02,East,82,2.0,2.0,87,0.00,,,0.00,Wunderground v.1.15,2013-09-08 15:40:00,
2013-09-08 11:41:00,72.0,67.9,30.02,ESE,113,4.0,5.0,87,0.00,,,0.00,Wunderground v.1.15,2013-09-08 15:41:00,
2013-09-08 11:43:00,72.1,67.7,30.02,SE,127,5.0,5.0,86,0.00,,,0.00,Wunderground v.1.15,2013-09-08 15:43:00,
2013-09-08 11:44:00,72.1,67.3,30.02,ESE,111,4.0,5.0,85,0.00,,,0.00,Wunderground v.1.15,2013-09-08 15:44:00,
2013-09-08 11:45:00,72.1,67.3,30.02,ESE,109,3.0,5.0,85,0.00,,,0.00,Wunderground v.1.15,2013-09-08 15:45:00,
2013-09-08 11:46:00,72.1,67.7,30.03,East,93,3.0,5.0,86,0.00,,,0.00,Wunderground v.1.15,2013-09-08 15:46:00,
2013-09-08 11:48:00,72.1,67.3,30.02,ESE,114,4.0,6.0,85,0.00,,,0.00,Wunderground v.1.15,2013-09-08 15:48:00,
2013-09-08 11:50:00,72.3,68.2,30.03,East,93,0.0,3.0,87,0.00,,,0.00,Wunderground v.1.15,2013-09-08 15:50:00,
2013-09-08 11:51:00,72.5,67.7,30.03,ESE,109,3.0,5.0,85,0.00,,,0.00,Wunderground v.1.15,2013-09-08 15:51:00,
2013-09-08 11:52:00,72.5,67.7,30.03,ESE,109,1.0,5.0,85,0.00,,,0.00,Wunderground v.1.15,2013-09-08 15:52:00,
2013-09-08 11:54:00,72.8,68.0,30.03,ENE,74,0.0,5.0,85,0.00,,,0.00,Wunderground v.1.15,2013-09-08 15:54:00,
2013-09-08 11:55:00,72.9,68.5,30.03,ESE,106,2.0,5.0,86,0.00,,,0.00,Wunderground v.1.15,2013-09-08 15:55:00,
2013-09-08 11:56:00,73.0,68.2,30.03,ESE,117,1.0,5.0,85,0.00,,,0.00,Wunderground v.1.15,2013-09-08 15:56:00,
2013-09-08 11:57:00,73.1,69.0,30.03,ESE,115,0.0,5.0,87,0.00,,,0.00,Wunderground v.1.15,2013-09-08 15:57:00,
2013-09-08 11:59:00,73.1,68.7,30.03,ESE,113,4.0,5.0,86,0.00,,,0.00,Wunderground v.1.15,2013-09-08 15:59:00,
2013-09-08 12:00:00,73.1,68.0,30.03,ESE,110,0.0,3.0,84,0.00,,,0.00,Wunderground v.1.15,2013-09-08 16:00:00,
2013-09-08 12:01:00,73.1,68.7,30.03,ESE,113,3.0,3.0,86,0.00,,,0.00,Wunderground v.1.15,2013-09-08 16:01:00,
2013-09-08 12:03:00,73.1,68.0,30.03,SE,125,4.0,4.0,84,0.00,,,0.00,Wunderground v.1.15,2013-09-08 16:03:00,
2013-09-08 12:05:00,73.2,68.1,30.03,ESE,103,7.0,11.0,84,0.00,,,0.00,Wunderground v.1.15,2013-09-08 16:05:00,
2013-09-08 12:06:00,73.1,67.3,30.03,ESE,105,2.0,11.0,82,0.00,,,0.00,Wunderground v.1.15,2013-09-08 16:06:00,
2013-09-08 12:07:00,73.0,67.2,30.03,ESE,119,7.0,11.0,82,0.00,,,0.00,Wunderground v.1.15,2013-09-08 16:07:00,
2013-09-08 12:08:00,72.9,67.8,30.03,ESE,123,4.0,11.0,84,0.00,,,0.00,Wunderground v.1.15,2013-09-08 16:08:00,
2013-09-08 12:09:00,72.9,67.4,30.03,ESE,105,4.0,11.0,83,0.00,,,0.00,Wunderground v.1.15,2013-09-08 16:09:00,
2013-09-08 12:10:00,72.8,67.0,30.03,ESE,115,3.0,3.0,82,0.00,,,0.00,Wunderground v.1.15,2013-09-08 16:10:00,
2013-09-08 12:11:00,72.8,67.3,30.03,ESE,108,5.0,7.0,83,0.00,,,0.00,Wunderground v.1.15,2013-09-08 16:11:00,
2013-09-08 12:13:00,72.8,67.0,30.03,ESE,109,2.0,7.0,82,0.00,,,0.00,Wunderground v.1.15,2013-09-08 16:13:00,
2013-09-08 12:14:00,72.8,67.3,30.03,SE,128,6.0,7.0,83,0.00,,,0.00,Wunderground v.1.15,2013-09-08 16:14:00,
2013-09-08 12:15:00,72.9,67.4,30.03,ESE,118,3.0,7.0,83,0.00,,,0.00,Wunderground v.1.15,2013-09-08 16:15:00,
2013-09-08 12:16:00,72.9,67.1,30.03,East,100,3.0,7.0,82,0.00,,,0.00,Wunderground v.1.15,2013-09-08 16:16:00,
2013-09-08 12:18:00,72.9,67.1,30.03,ESE,114,3.0,7.0,82,0.00,,,0.00,Wunderground v.1.15,2013-09-08 16:18:00,
2013-09-08 12:20:00,73.0,67.2,30.02,East,90,5.0,5.0,82,0.00,,,0.00,Wunderground v.1.15,2013-09-08 16:20:00,
2013-09-08 12:22:00,72.8,66.6,30.02,ESE,105,5.0,10.0,81,0.00,,,0.00,Wunderground v.1.15,2013-09-08 16:22:00,
2013-09-08 12:23:00,72.8,66.6,30.02,ESE,121,2.0,10.0,81,0.00,,,0.00,Wunderground v.1.15,2013-09-08 16:23:00,
2013-09-08 12:25:00,72.7,66.5,30.02,ESE,116,0.0,10.0,81,0.00,,,0.00,Wunderground v.1.15,2013-09-08 16:25:00,
2013-09-08 12:26:00,72.8,67.0,30.02,ESE,119,1.0,10.0,82,0.00,,,0.00,Wunderground v.1.15,2013-09-08 16:26:00,
2013-09-08 12:27:00,72.8,67.0,30.02,ESE,118,0.0,10.0,82,0.00,,,0.00,Wunderground v.1.15,2013-09-08 16:27:00,
2013-09-08 12:28:00,73.1,67.3,30.02,East,101,3.0,10.0,82,0.00,,,0.00,Wunderground v.1.15,2013-09-08 16:28:00,
2013-09-08 12:30:00,73.2,67.0,30.03,ESE,114,3.0,3.0,81,0.00,,,0.00,Wunderground v.1.15,2013-09-08 16:30:00,
2013-09-08 12:32:00,73.2,67.0,30.03,ESE,116,5.0,5.0,81,0.00,,,0.00,Wunderground v.1.15,2013-09-08 16:32:00,
2013-09-08 12:33:00,73.1,66.6,30.03,SE,128,0.0,6.0,80,0.00,,,0.00,Wunderground v.1.15,2013-09-08 16:33:00,
2013-09-08 12:34:00,73.1,66.6,30.03,East,87,4.0,6.0,80,0.00,,,0.00,Wunderground v.1.15,2013-09-08 16:34:00,
2013-09-08 12:35:00,73.1,66.9,30.03,ENE,77,2.0,6.0,81,0.00,,,0.00,Wunderground v.1.15,2013-09-08 16:35:00,
2013-09-08 12:36:00,73.0,66.5,30.03,SE,127,6.0,7.0,80,0.00,,,0.00,Wunderground v.1.15,2013-09-08 16:36:00,
2013-09-08 12:37:00,73.0,66.5,30.03,ESE,120,4.0,7.0,80,0.00,,,0.00,Wunderground v.1.15,2013-09-08 16:37:00,
2013-09-08 12:38:00,72.9,66.4,30.03,ESE,111,4.0,7.0,80,0.00,,,0.00,Wunderground v.1.15,2013-09-08 16:38:00,
2013-09-08 12:39:00,72.8,66.6,30.03,ESE,111,4.0,7.0,81,0.00,,,0.00,Wunderground v.1.15,2013-09-08 16:39:00,
2013-09-08 12:40:00,72.7,66.2,30.03,East,99,3.0,4.0,80,0.00,,,0.00,Wunderground v.1.15,2013-09-08 16:40:00,
2013-09-08 12:41:00,72.8,66.3,30.03,ENE,58,1.0,7.0,80,0.00,,,0.00,Wunderground v.1.15,2013-09-08 16:41:00,
2013-09-08 12:43:00,73.0,67.2,30.03,ESE,106,4.0,10.0,82,0.00,,,0.00,Wunderground v.1.15,2013-09-08 16:43:00,
2013-09-08 12:44:00,73.0,66.5,30.03,ESE,113,5.0,10.0,80,0.00,,,0.00,Wunderground v.1.15,2013-09-08 16:44:00,
2013-09-08 12:46:00,73.1,66.9,30.03,ESE,113,2.0,10.0,81,0.00,,,0.00,Wunderground v.1.15,2013-09-08 16:46:00,
2013-09-08 12:47:00,73.0,66.5,30.03,ESE,107,5.0,10.0,80,0.00,,,0.00,Wunderground v.1.15,2013-09-08 16:47:00,
2013-09-08 12:48:00,72.8,66.3,30.03,ESE,103,2.0,10.0,80,0.00,,,0.00,Wunderground v.1.15,2013-09-08 16:48:00,
2013-09-08 12:49:00,72.7,66.2,30.03,SE,132,1.0,10.0,80,0.00,,,0.00,Wunderground v.1.15,2013-09-08 16:49:00,
2013-09-08 12:51:00,72.5,66.3,30.03,East,86,4.0,7.0,81,0.00,,,0.00,Wunderground v.1.15,2013-09-08 16:51:00,
2013-09-08 12:52:00,72.6,66.8,30.03,ESE,103,1.0,7.0,82,0.00,,,0.00,Wunderground v.1.15,2013-09-08 16:52:00,
2013-09-08 12:53:00,72.6,66.8,30.03,ESE,109,2.0,7.0,82,0.00,,,0.00,Wunderground v.1.15,2013-09-08 16:53:00,
2013-09-08 12:54:00,72.7,66.5,30.03,ESE,112,3.0,7.0,81,0.00,,,0.00,Wunderground v.1.15,2013-09-08 16:54:00,
2013-09-08 12:56:00,72.8,66.3,30.03,ESE,111,7.0,10.0,80,0.00,,,0.00,Wunderground v.1.15,2013-09-08 16:56:00,
2013-09-08 12:58:00,72.8,66.6,30.03,East,86,9.0,10.0,81,0.00,,,0.00,Wunderground v.1.15,2013-09-08 16:58:00,
2013-09-08 12:59:00,72.8,65.9,30.03,ESE,102,2.0,10.0,79,0.00,,,0.00,Wunderground v.1.15,2013-09-08 16:59:00,
2013-09-08 13:00:00,72.8,66.3,30.03,SE,126,6.0,10.0,80,0.00,,,0.00,Wunderground v.1.15,2013-09-08 17:00:00,
2013-09-08 13:01:00,72.7,65.8,30.03,ESE,111,3.0,10.0,79,0.00,,,0.00,Wunderground v.1.15,2013-09-08 17:01:00,
2013-09-08 13:03:00,72.7,66.2,30.03,ESE,106,0.0,10.0,80,0.00,,,0.00,Wunderground v.1.15,2013-09-08 17:03:00,
2013-09-08 13:04:00,72.9,67.1,30.03,ESE,108,1.0,10.0,82,0.00,,,0.00,Wunderground v.1.15,2013-09-08 17:04:00,
2013-09-08 13:05:00,73.1,66.9,30.03,ESE,102,3.0,10.0,81,0.00,,,0.00,Wunderground v.1.15,2013-09-08 17:05:00,
2013-09-08 13:06:00,73.1,66.9,30.03,East,100,3.0,10.0,81,0.00,,,0.00,Wunderground v.1.15,2013-09-08 17:06:00,
2013-09-08 13:07:00,73.3,67.1,30.03,SE,140,3.0,10.0,81,0.00,,,0.00,Wunderground v.1.15,2013-09-08 17:07:00,
2013-09-08 13:09:00,73.4,66.5,30.03,ESE,115,5.0,10.0,79,0.00,,,0.00,Wunderground v.1.15,2013-09-08 17:09:00,
2013-09-08 13:11:00,73.1,65.8,30.03,ESE,117,4.0,9.0,78,0.00,,,0.00,Wunderground v.1.15,2013-09-08 17:11:00,
2013-09-08 13:12:00,73.1,66.2,30.03,East,86,2.0,9.0,79,0.00,,,0.00,Wunderground v.1.15,2013-09-08 17:12:00,
2013-09-08 13:14:00,73.0,66.5,30.03,ESE,110,3.0,9.0,80,0.00,,,0.00,Wunderground v.1.15,2013-09-08 17:14:00,
2013-09-08 13:15:00,73.0,66.1,30.03,ESE,114,3.0,9.0,79,0.00,,,0.00,Wunderground v.1.15,2013-09-08 17:15:00,
2013-09-08 13:17:00,73.1,66.6,30.03,ESE,117,1.0,9.0,80,0.00,,,0.00,Wunderground v.1.15,2013-09-08 17:17:00,
2013-09-08 13:18:00,73.1,66.6,30.03,East,99,3.0,9.0,80,0.00,,,0.00,Wunderground v.1.15,2013-09-08 17:18:00,
2013-09-08 13:19:00,73.1,66.6,30.03,ENE,72,3.0,9.0,80,0.00,,,0.00,Wunderground v.1.15,2013-09-08 17:19:00,
2013-09-08 13:20:00,73.2,66.3,30.03,SE,132,3.0,4.0,79,0.00,,,0.00,Wunderground v.1.15,2013-09-08 17:20:00,
2013-09-08 13:22:00,73.4,66.5,30.03,East,94,2.0,6.0,79,0.00,,,0.00,Wunderground v.1.15,2013-09-08 17:22:00,
2013-09-08 13:23:00,73.4,66.5,30.03,East,96,0.0,6.0,79,0.00,,,0.00,Wunderground v.1.15,2013-09-08 17:23:00,
2013-09-08 13:24:00,73.5,66.6,30.03,ESE,117,1.0,6.0,79,0.00,,,0.00,Wunderground v.1.15,2013-09-08 17:24:00,
2013-09-08 13:25:00,73.5,66.6,30.03,ESE,108,4.0,6.0,79,0.00,,,0.00,Wunderground v.1.15,2013-09-08 17:25:00,
2013-09-08 13:28:00,73.2,65.6,30.03,ESE,102,2.0,10.0,77,0.00,,,0.00,Wunderground v.1.15,2013-09-08 17:28:00,
2013-09-08 13:29:00,73.2,66.3,30.03,East,90,4.0,10.0,79,0.00,,,0.00,Wunderground v.1.15,2013-09-08 17:29:00,
2013-09-08 13:30:00,73.3,66.4,30.03,ESE,111,4.0,5.0,79,0.00,,,0.00,Wunderground v.1.15,2013-09-08 17:30:00,
2013-09-08 13:33:00,73.3,66.0,30.03,ESE,115,4.0,6.0,78,0.00,,,0.00,Wunderground v.1.15,2013-09-08 17:33:00,
2013-09-08 13:34:00,73.3,66.0,30.03,East,82,6.0,8.0,78,0.00,,,0.00,Wunderground v.1.15,2013-09-08 17:34:00,
2013-09-08 13:35:00,73.4,66.5,30.03,ESE,107,3.0,8.0,79,0.00,,,0.00,Wunderground v.1.15,2013-09-08 17:35:00,
2013-09-08 13:38:00,73.9,67.0,30.03,ESE,103,0.0,10.0,79,0.00,,,0.00,Wunderground v.1.15,2013-09-08 17:38:00,
2013-09-08 13:39:00,74.1,66.0,30.03,NE,47,3.0,10.0,76,0.00,,,0.00,Wunderground v.1.15,2013-09-08 17:39:00,
2013-09-08 13:40:00,74.2,66.1,30.03,ESE,117,0.0,6.0,76,0.00,,,0.00,Wunderground v.1.15,2013-09-08 17:40:00,
2013-09-08 13:41:00,74.2,66.5,30.03,SSE,153,2.0,6.0,77,0.00,,,0.00,Wunderground v.1.15,2013-09-08 17:41:00,
2013-09-08 13:43:00,74.2,66.5,30.03,ESE,110,4.0,7.0,77,0.00,,,0.00,Wunderground v.1.15,2013-09-08 17:43:00,
2013-09-08 13:45:00,74.2,66.9,30.03,ESE,119,5.0,8.0,78,0.00,,,0.00,Wunderground v.1.15,2013-09-08 17:45:00,
2013-09-08 13:46:00,74.1,66.0,30.03,East,95,3.0,8.0,76,0.00,,,0.00,Wunderground v.1.15,2013-09-08 17:46:00,
2013-09-08 13:49:00,74.0,66.3,30.03,East,98,4.0,8.0,77,0.00,,,0.00,Wunderground v.1.15,2013-09-08 17:49:00,
2013-09-08 13:50:00,74.0,66.3,30.03,ESE,106,3.0,3.0,77,0.00,,,0.00,Wunderground v.1.15,2013-09-08 17:50:00,
2013-09-08 13:51:00,74.1,66.4,30.03,East,90,3.0,8.0,77,0.00,,,0.00,Wunderground v.1.15,2013-09-08 17:51:00,
2013-09-08 13:53:00,74.1,66.4,30.03,ESE,119,2.0,8.0,77,0.00,,,0.00,Wunderground v.1.15,2013-09-08 17:53:00,
2013-09-08 13:54:00,74.1,66.4,30.03,NE,49,2.0,8.0,77,0.00,,,0.00,Wunderground v.1.15,2013-09-08 17:54:00,
2013-09-08 13:55:00,74.2,66.9,30.03,ESE,114,1.0,8.0,78,0.00,,,0.00,Wunderground v.1.15,2013-09-08 17:55:00,
2013-09-08 13:56:00,74.3,66.6,30.03,East,96,5.0,8.0,77,0.00,,,0.00,Wunderground v.1.15,2013-09-08 17:56:00,
2013-09-08 13:59:00,74.3,66.2,30.03,SE,130,4.0,9.0,76,0.00,,,0.00,Wunderground v.1.15,2013-09-08 17:59:00,
2013-09-08 14:00:00,74.2,65.8,30.03,ESE,113,2.0,2.0,75,0.00,,,0.00,Wunderground v.1.15,2013-09-08 18:00:00,
2013-09-08 14:01:00,74.3,66.6,30.03,ESE,114,3.0,3.0,77,0.00,,,0.00,Wunderground v.1.15,2013-09-08 18:01:00,
2013-09-08 14:02:00,74.3,66.6,30.03,ESE,111,6.0,6.0,77,0.00,,,0.00,Wunderground v.1.15,2013-09-08 18:02:00,
2013-09-08 14:04:00,74.3,67.0,30.03,East,101,0.0,8.0,78,0.00,,,0.00,Wunderground v.1.15,2013-09-08 18:04:00,
2013-09-08 14:05:00,74.4,67.1,30.03,East,96,3.0,8.0,78,0.00,,,0.00,Wunderground v.1.15,2013-09-08 18:05:00,
2013-09-08 14:06:00,74.4,66.3,30.03,ESE,119,7.0,8.0,76,0.00,,,0.00,Wunderground v.1.15,2013-09-08 18:06:00,
2013-09-08 14:07:00,74.4,66.0,30.03,East,99,2.0,8.0,75,0.00,,,0.00,Wunderground v.1.15,2013-09-08 18:07:00,
2013-09-08 14:09:00,74.7,66.6,30.03,ESE,103,0.0,8.0,76,0.00,,,0.00,Wunderground v.1.15,2013-09-08 18:09:00,
2013-09-08 14:10:00,74.9,66.8,30.03,East,83,0.0,4.0,76,0.00,,,0.00,Wunderground v.1.15,2013-09-08 18:10:00,
2013-09-08 14:11:00,75.0,66.9,30.03,East,83,1.0,4.0,76,0.00,,,0.00,Wunderground v.1.15,2013-09-08 18:11:00,
2013-09-08 14:12:00,75.3,67.6,30.04,ESE,109,3.0,4.0,77,0.00,,,0.00,Wunderground v.1.15,2013-09-08 18:12:00,
2013-09-08 14:15:00,75.2,67.1,30.04,NE,34,4.0,6.0,76,0.00,,,0.00,Wunderground v.1.15,2013-09-08 18:15:00,
2013-09-08 14:16:00,75.2,66.3,30.03,ESE,118,0.0,6.0,74,0.00,,,0.00,Wunderground v.1.15,2013-09-08 18:16:00,
2013-09-08 14:17:00,75.2,67.1,30.03,East,90,1.0,6.0,76,0.00,,,0.00,Wunderground v.1.15,2013-09-08 18:17:00,
2013-09-08 14:18:00,75.2,66.3,30.04,ESE,103,0.0,6.0,74,0.00,,,0.00,Wunderground v.1.15,2013-09-08 18:18:00,
2013-09-08 14:20:00,75.1,66.6,30.04,ESE,111,2.0,3.0,75,0.00,,,0.00,Wunderground v.1.15,2013-09-08 18:20:00,
2013-09-08 14:21:00,75.0,66.5,30.04,East,87,3.0,6.0,75,0.00,,,0.00,Wunderground v.1.15,2013-09-08 18:21:00,
2013-09-08 14:22:00,74.9,66.8,30.03,ESE,107,3.0,6.0,76,0.00,,,0.00,Wunderground v.1.15,2013-09-08 18:22:00,
2013-09-08 14:23:00,74.9,66.1,30.03,East,87,4.0,6.0,74,0.00,,,0.00,Wunderground v.1.15,2013-09-08 18:23:00,
2013-09-08 14:25:00,74.6,66.5,30.03,East,96,3.0,6.0,76,0.00,,,0.00,Wunderground v.1.15,2013-09-08 18:25:00,
2013-09-08 14:26:00,74.5,66.1,30.03,East,96,1.0,6.0,75,0.00,,,0.00,Wunderground v.1.15,2013-09-08 18:26:00,
2013-09-08 14:27:00,74.6,67.3,30.03,East,96,0.0,6.0,78,0.00,,,0.00,Wunderground v.1.15,2013-09-08 18:27:00,
2013-09-08 14:29:00,74.8,66.7,30.03,East,97,1.0,6.0,76,0.00,,,0.00,Wunderground v.1.15,2013-09-08 18:29:00,
2013-09-08 14:30:00,75.3,67.6,30.03,East,93,5.0,6.0,77,0.00,,,0.00,Wunderground v.1.15,2013-09-08 18:30:00,
2013-09-08 14:31:00,75.4,66.9,30.03,ESE,119,3.0,6.0,75,0.00,,,0.00,Wunderground v.1.15,2013-09-08 18:31:00,
2013-09-08 14:32:00,75.4,66.5,30.03,ESE,105,2.0,6.0,74,0.00,,,0.00,Wunderground v.1.15,2013-09-08 18:32:00,
2013-09-08 14:33:00,75.3,66.4,30.03,ESE,107,2.0,6.0,74,0.00,,,0.00,Wunderground v.1.15,2013-09-08 18:33:00,
2013-09-08 14:34:00,75.2,66.3,30.03,SSE,150,2.0,6.0,74,0.00,,,0.00,Wunderground v.1.15,2013-09-08 18:34:00,
2013-09-08 14:35:00,75.2,66.3,30.03,ESE,109,4.0,6.0,74,0.00,,,0.00,Wunderground v.1.15,2013-09-08 18:35:00,
2013-09-08 14:36:00,75.1,66.2,30.03,ESE,108,2.0,6.0,74,0.00,,,0.00,Wunderground v.1.15,2013-09-08 18:36:00,
2013-09-08 14:37:00,75.1,67.0,30.03,ESE,107,1.0,6.0,76,0.00,,,0.00,Wunderground v.1.15,2013-09-08 18:37:00,
2013-09-08 14:38:00,75.1,66.2,30.02,SSE,152,3.0,6.0,74,0.00,,,0.00,Wunderground v.1.15,2013-09-08 18:38:00,
2013-09-08 14:39:00,75.1,66.6,30.03,SE,142,1.0,6.0,75,0.00,,,0.00,Wunderground v.1.15,2013-09-08 18:39:00,
2013-09-08 14:40:00,75.2,66.7,30.02,SE,138,0.0,2.0,75,0.00,,,0.00,Wunderground v.1.15,2013-09-08 18:40:00,
2013-09-08 14:41:00,75.3,67.2,30.02,SE,138,0.0,2.0,76,0.00,,,0.00,Wunderground v.1.15,2013-09-08 18:41:00,
2013-09-08 14:43:00,76.0,67.9,30.02,ESE,104,2.0,3.0,76,0.00,,,0.00,Wunderground v.1.15,2013-09-08 18:43:00,
2013-09-08 14:44:00,76.1,67.2,30.02,ESE,111,2.0,3.0,74,0.00,,,0.00,Wunderground v.1.15,2013-09-08 18:44:00,
2013-09-08 14:45:00,76.2,67.3,30.02,East,98,1.0,3.0,74,0.00,,,0.00,Wunderground v.1.15,2013-09-08 18:45:00,
2013-09-08 14:46:00,76.3,67.4,30.02,East,98,0.0,3.0,74,0.00,,,0.00,Wunderground v.1.15,2013-09-08 18:46:00,
2013-09-08 14:49:00,76.8,66.7,30.02,East,101,2.0,4.0,71,0.00,,,0.00,Wunderground v.1.15,2013-09-08 18:49:00,
2013-09-08 14:50:00,76.5,66.4,30.02,ESE,103,1.0,2.0,71,0.00,,,0.00,Wunderground v.1.15,2013-09-08 18:50:00,
2013-09-08 14:51:00,76.4,66.7,30.02,East,85,2.0,2.0,72,0.00,,,0.00,Wunderground v.1.15,2013-09-08 18:51:00,
2013-09-08 14:55:00,76.0,65.9,30.01,ESE,113,3.0,5.0,71,0.00,,,0.00,Wunderground v.1.15,2013-09-08 18:55:00,
2013-09-08 14:56:00,75.9,65.8,30.02,ESE,106,3.0,5.0,71,0.00,,,0.00,Wunderground v.1.15,2013-09-08 18:56:00,
2013-09-08 14:57:00,75.9,65.8,30.02,ESE,111,4.0,5.0,71,0.00,,,0.00,Wunderground v.1.15,2013-09-08 18:57:00,
2013-09-08 15:00:00,76.2,67.3,30.01,ESE,104,1.0,2.0,74,0.00,,,0.00,Wunderground v.1.15,2013-09-08 19:00:00,
2013-09-08 15:01:00,76.3,67.4,30.01,ESE,105,1.0,2.0,74,0.00,,,0.00,Wunderground v.1.15,2013-09-08 19:01:00,
2013-09-08 15:02:00,76.7,66.2,30.01,ESE,117,1.0,3.0,70,0.00,,,0.00,Wunderground v.1.15,2013-09-08 19:02:00,
2013-09-08 15:03:00,76.6,66.1,30.01,ESE,117,1.0,3.0,70,0.00,,,0.00,Wunderground v.1.15,2013-09-08 19:03:00,
2013-09-08 15:06:00,77.0,67.3,30.01,ESE,120,1.0,4.0,72,0.00,,,0.00,Wunderground v.1.15,2013-09-08 19:06:00,
2013-09-08 15:07:00,77.4,68.5,30.01,ESE,120,0.0,4.0,74,0.00,,,0.00,Wunderground v.1.15,2013-09-08 19:07:00,
2013-09-08 15:08:00,77.5,68.6,30.01,ESE,120,2.0,4.0,74,0.00,,,0.00,Wunderground v.1.15,2013-09-08 19:08:00,
2013-09-08 15:11:00,78.2,67.2,30.01,SE,142,3.0,4.0,69,0.00,,,0.00,Wunderground v.1.15,2013-09-08 19:11:00,
2013-09-08 15:12:00,78.1,67.5,30.01,SE,134,0.0,4.0,70,0.00,,,0.00,Wunderground v.1.15,2013-09-08 19:12:00,
2013-09-08 15:13:00,78.1,67.1,30.01,SE,130,0.0,4.0,69,0.00,,,0.00,Wunderground v.1.15,2013-09-08 19:13:00,
2013-09-08 15:14:00,78.2,67.6,30.01,ESE,104,0.0,5.0,70,0.00,,,0.00,Wunderground v.1.15,2013-09-08 19:14:00,
2013-09-08 15:15:00,78.2,66.8,30.01,ESE,123,1.0,5.0,68,0.00,,,0.00,Wunderground v.1.15,2013-09-08 19:15:00,
2013-09-08 15:17:00,78.2,67.6,30.01,ESE,115,1.0,5.0,70,0.00,,,0.00,Wunderground v.1.15,2013-09-08 19:17:00,
2013-09-08 15:18:00,78.3,67.3,30.01,ESE,111,4.0,5.0,69,0.00,,,0.00,Wunderground v.1.15,2013-09-08 19:18:00,
2013-09-08 15:19:00,78.1,67.1,30.01,ESE,109,2.0,5.0,69,0.00,,,0.00,Wunderground v.1.15,2013-09-08 19:19:00,
2013-09-08 15:20:00,78.1,67.1,30.01,ESE,111,1.0,5.0,69,0.00,,,0.00,Wunderground v.1.15,2013-09-08 19:20:00,
2013-09-08 15:22:00,77.8,67.2,30.01,ESE,109,2.0,5.0,70,0.00,,,0.00,Wunderground v.1.15,2013-09-08 19:22:00,
2013-09-08 15:23:00,77.7,66.3,30.01,East,98,2.0,5.0,68,0.00,,,0.00,Wunderground v.1.15,2013-09-08 19:23:00,
2013-09-08 15:25:00,78.5,67.5,30.01,SE,133,1.0,5.0,69,0.00,,,0.00,Wunderground v.1.15,2013-09-08 19:25:00,
2013-09-08 15:28:00,78.6,66.7,30.01,SSE,152,2.0,5.0,67,0.00,,,0.00,Wunderground v.1.15,2013-09-08 19:28:00,
2013-09-08 15:29:00,78.7,67.7,30.01,SSE,150,1.0,5.0,69,0.00,,,0.00,Wunderground v.1.15,2013-09-08 19:29:00,
2013-09-08 15:30:00,78.6,67.2,30.01,SE,130,1.0,2.0,68,0.00,,,0.00,Wunderground v.1.15,2013-09-08 19:30:00,
2013-09-08 15:31:00,78.9,68.3,30.01,SE,130,1.0,2.0,70,0.00,,,0.00,Wunderground v.1.15,2013-09-08 19:31:00,
2013-09-08 15:32:00,78.9,67.4,30.01,SE,126,1.0,3.0,68,0.00,,,0.00,Wunderground v.1.15,2013-09-08 19:32:00,
2013-09-08 15:33:00,78.9,67.0,30.00,SE,126,2.0,3.0,67,0.00,,,0.00,Wunderground v.1.15,2013-09-08 19:33:00,
2013-09-08 15:34:00,78.7,66.8,30.01,SE,126,1.0,3.0,67,0.00,,,0.00,Wunderground v.1.15,2013-09-08 19:34:00,
2013-09-08 15:36:00,78.9,68.3,30.01,SE,126,0.0,3.0,70,0.00,,,0.00,Wunderground v.1.15,2013-09-08 19:36:00,
2013-09-08 15:37:00,79.2,69.4,30.01,SE,126,0.0,3.0,72,0.00,,,0.00,Wunderground v.1.15,2013-09-08 19:37:00,
2013-09-08 15:39:00,79.3,68.2,30.01,NNW,345,0.0,3.0,69,0.00,,,0.00,Wunderground v.1.15,2013-09-08 19:39:00,
2013-09-08 15:41:00,79.9,68.4,30.01,ENE,70,1.0,2.0,68,0.00,,,0.00,Wunderground v.1.15,2013-09-08 19:41:00,
2013-09-08 15:43:00,79.8,67.4,30.01,ESE,114,4.0,4.0,66,0.00,,,0.00,Wunderground v.1.15,2013-09-08 19:43:00,
2013-09-08 15:44:00,79.5,66.7,30.01,ENE,77,3.0,4.0,65,0.00,,,0.00,Wunderground v.1.15,2013-09-08 19:44:00,
2013-09-08 15:46:00,79.2,67.7,30.00,East,98,1.0,4.0,68,0.00,,,0.00,Wunderground v.1.15,2013-09-08 19:46:00,
2013-09-08 15:47:00,79.3,67.8,30.01,East,98,0.0,4.0,68,0.00,,,0.00,Wunderground v.1.15,2013-09-08 19:47:00,
2013-09-08 15:49:00,79.9,68.0,30.01,ESE,113,0.0,4.0,67,0.00,,,0.00,Wunderground v.1.15,2013-09-08 19:49:00,
2013-09-08 15:52:00,80.1,67.3,30.01,ESE,119,2.0,7.0,65,0.00,,,0.00,Wunderground v.1.15,2013-09-08 19:52:00,
2013-09-08 15:54:00,78.8,66.5,30.00,NNE,19,1.0,7.0,66,0.00,,,0.00,Wunderground v.1.15,2013-09-08 19:54:00,
2013-09-08 15:55:00,78.6,67.2,30.00,NNE,19,0.0,7.0,68,0.00,,,0.00,Wunderground v.1.15,2013-09-08 19:55:00,
2013-09-08 15:57:00,77.8,66.0,30.00,East,88,2.0,7.0,67,0.00,,,0.00,Wunderground v.1.15,2013-09-08 19:57:00,
2013-09-08 15:59:00,77.1,66.6,30.00,ESE,109,0.0,7.0,70,0.00,,,0.00,Wunderground v.1.15,2013-09-08 19:59:00,
2013-09-08 16:00:00,76.9,66.4,30.00,East,94,1.0,2.0,70,0.00,,,0.00,Wunderground v.1.15,2013-09-08 20:00:00,
2013-09-08 16:04:00,76.6,66.9,30.00,ENE,78,0.0,7.0,72,0.00,,,0.00,Wunderground v.1.15,2013-09-08 20:04:00,
2013-09-08 16:05:00,76.7,67.0,30.00,ENE,78,1.0,7.0,72,0.00,,,0.00,Wunderground v.1.15,2013-09-08 20:05:00,
2013-09-08 16:09:00,77.0,67.3,30.00,ESE,121,1.0,7.0,72,0.00,,,0.00,Wunderground v.1.15,2013-09-08 20:09:00,
2013-09-08 16:10:00,77.0,67.3,30.00,ESE,105,3.0,3.0,72,0.00,,,0.00,Wunderground v.1.15,2013-09-08 20:10:00,
2013-09-08 16:12:00,76.9,66.0,30.00,East,95,0.0,4.0,69,0.00,,,0.00,Wunderground v.1.15,2013-09-08 20:12:00,
2013-09-08 16:14:00,77.2,67.1,30.00,ESE,113,1.0,4.0,71,0.00,,,0.00,Wunderground v.1.15,2013-09-08 20:14:00,
2013-09-08 16:15:00,77.4,66.8,30.00,ESE,114,2.0,4.0,70,0.00,,,0.00,Wunderground v.1.15,2013-09-08 20:15:00,
2013-09-08 16:16:00,77.5,66.9,30.00,ESE,115,1.0,4.0,70,0.00,,,0.00,Wunderground v.1.15,2013-09-08 20:16:00,
2013-09-08 16:18:00,78.1,68.3,29.99,ESE,110,0.0,4.0,72,0.00,,,0.00,Wunderground v.1.15,2013-09-08 20:18:00,
2013-09-08 16:20:00,78.8,68.2,29.99,ESE,109,2.0,2.0,70,0.00,,,0.00,Wunderground v.1.15,2013-09-08 20:20:00,
2013-09-08 16:21:00,78.8,66.9,29.99,ESE,116,5.0,5.0,67,0.00,,,0.00,Wunderground v.1.15,2013-09-08 20:21:00,
2013-09-08 16:22:00,78.8,66.5,29.99,SE,125,0.0,5.0,66,0.00,,,0.00,Wunderground v.1.15,2013-09-08 20:22:00,
2013-09-08 16:23:00,79.2,67.7,29.99,ESE,103,2.0,5.0,68,0.00,,,0.00,Wunderground v.1.15,2013-09-08 20:23:00,
2013-09-08 16:25:00,79.6,67.7,29.99,ESE,106,1.0,5.0,67,0.00,,,0.00,Wunderground v.1.15,2013-09-08 20:25:00,
2013-09-08 16:26:00,79.8,67.9,29.99,ESE,106,1.0,5.0,67,0.00,,,0.00,Wunderground v.1.15,2013-09-08 20:26:00,
2013-09-08 16:27:00,80.3,68.3,29.99,ESE,107,2.0,5.0,67,0.00,,,0.00,Wunderground v.1.15,2013-09-08 20:27:00,
2013-09-08 16:28:00,80.4,66.6,29.99,ENE,67,4.0,5.0,63,0.00,,,0.00,Wunderground v.1.15,2013-09-08 20:28:00,
2013-09-08 16:29:00,80.2,66.5,29.99,ESE,123,1.0,5.0,63,0.00,,,0.00,Wunderground v.1.15,2013-09-08 20:29:00,
2013-09-08 16:30:00,79.8,66.5,30.00,ESE,110,3.0,4.0,64,0.00,,,0.00,Wunderground v.1.15,2013-09-08 20:30:00,
2013-09-08 16:31:00,79.6,65.9,30.00,ENE,67,2.0,4.0,63,0.00,,,0.00,Wunderground v.1.15,2013-09-08 20:31:00,
2013-09-08 16:32:00,79.0,65.3,30.00,ESE,115,1.0,4.0,63,0.00,,,0.00,Wunderground v.1.15,2013-09-08 20:32:00,
2013-09-08 16:35:00,78.5,66.6,30.00,ESE,115,1.0,4.0,67,0.00,,,0.00,Wunderground v.1.15,2013-09-08 20:35:00,
2013-09-08 16:36:00,78.7,68.1,29.99,ESE,109,0.0,4.0,70,0.00,,,0.00,Wunderground v.1.15,2013-09-08 20:36:00,
2013-09-08 16:38:00,79.3,67.0,29.99,East,86,3.0,5.0,66,0.00,,,0.00,Wunderground v.1.15,2013-09-08 20:38:00,
2013-09-08 16:40:00,78.6,65.8,29.99,ESE,112,3.0,4.0,65,0.00,,,0.00,Wunderground v.1.15,2013-09-08 20:40:00,
2013-09-08 16:41:00,78.4,66.1,29.99,East,87,2.0,4.0,66,0.00,,,0.00,Wunderground v.1.15,2013-09-08 20:41:00,
2013-09-08 16:42:00,78.2,65.9,29.99,ESE,107,2.0,4.0,66,0.00,,,0.00,Wunderground v.1.15,2013-09-08 20:42:00,
2013-09-08 16:43:00,77.9,66.1,29.99,ESE,105,2.0,4.0,67,0.00,,,0.00,Wunderground v.1.15,2013-09-08 20:43:00,
2013-09-08 16:46:00,77.9,66.9,29.99,East,92,2.0,5.0,69,0.00,,,0.00,Wunderground v.1.15,2013-09-08 20:46:00,
2013-09-08 16:47:00,78.2,67.2,29.99,East,92,1.0,5.0,69,0.00,,,0.00,Wunderground v.1.15,2013-09-08 20:47:00,
2013-09-08 16:48:00,78.5,67.9,29.99,East,95,0.0,5.0,70,0.00,,,0.00,Wunderground v.1.15,2013-09-08 20:48:00,
2013-09-08 16:51:00,79.3,68.7,29.99,East,95,1.0,1.0,70,0.00,,,0.00,Wunderground v.1.15,2013-09-08 20:51:00,
2013-09-08 16:52:00,79.5,68.4,29.99,East,80,1.0,2.0,69,0.00,,,0.00,Wunderground v.1.15,2013-09-08 20:52:00,
2013-09-08 16:53:00,79.6,68.1,29.99,East,80,0.0,2.0,68,0.00,,,0.00,Wunderground v.1.15,2013-09-08 20:53:00,
2013-09-08 16:56:00,79.9,68.0,29.99,SSW,198,0.0,3.0,67,0.00,,,0.00,Wunderground v.1.15,2013-09-08 20:56:00,
2013-09-08 16:57:00,80.0,67.6,29.99,SSW,198,0.0,3.0,66,0.00,,,0.00,Wunderground v.1.15,2013-09-08 20:57:00,
2013-09-08 16:58:00,79.9,67.1,29.99,SSW,199,0.0,3.0,65,0.00,,,0.00,Wunderground v.1.15,2013-09-08 20:58:00,
2013-09-08 17:01:00,79.5,66.7,29.99,SE,142,1.0,4.0,65,0.00,,,0.00,Wunderground v.1.15,2013-09-08 21:01:00,
2013-09-08 17:02:00,79.6,67.7,29.99,SSE,153,2.0,4.0,67,0.00,,,0.00,Wunderground v.1.15,2013-09-08 21:02:00,
2013-09-08 17:03:00,79.8,68.3,29.99,SE,132,1.0,4.0,68,0.00,,,0.00,Wunderground v.1.15,2013-09-08 21:03:00,
2013-09-08 17:04:00,79.8,67.9,29.99,SE,132,0.0,4.0,67,0.00,,,0.00,Wunderground v.1.15,2013-09-08 21:04:00,
2013-09-08 17:06:00,79.5,68.4,29.99,SE,140,0.0,4.0,69,0.00,,,0.00,Wunderground v.1.15,2013-09-08 21:06:00,
2013-09-08 17:07:00,79.6,68.1,29.99,ESE,123,0.0,4.0,68,0.00,,,0.00,Wunderground v.1.15,2013-09-08 21:07:00,
2013-09-08 17:08:00,79.5,67.6,29.99,ESE,123,0.0,4.0,67,0.00,,,0.00,Wunderground v.1.15,2013-09-08 21:08:00,
2013-09-08 17:09:00,79.5,67.6,29.99,ESE,123,0.0,4.0,67,0.00,,,0.00,Wunderground v.1.15,2013-09-08 21:09:00,
2013-09-08 17:10:00,79.5,68.0,29.99,ESE,123,0.0,1.0,68,0.00,,,0.00,Wunderground v.1.15,2013-09-08 21:10:00,
2013-09-08 17:12:00,80.2,67.4,29.99,ESE,104,0.0,3.0,65,0.00,,,0.00,Wunderground v.1.15,2013-09-08 21:12:00,
2013-09-08 17:13:00,80.3,68.3,29.99,ESE,106,2.0,3.0,67,0.00,,,0.00,Wunderground v.1.15,2013-09-08 21:13:00,
2013-09-08 17:14:00,80.4,68.4,29.99,East,87,2.0,5.0,67,0.00,,,0.00,Wunderground v.1.15,2013-09-08 21:14:00,
2013-09-08 17:16:00,80.3,66.6,29.99,ESE,105,3.0,5.0,63,0.00,,,0.00,Wunderground v.1.15,2013-09-08 21:16:00,
2013-09-08 17:17:00,80.1,67.3,29.99,ESE,119,1.0,5.0,65,0.00,,,0.00,Wunderground v.1.15,2013-09-08 21:17:00,
2013-09-08 17:19:00,79.9,67.1,29.98,East,82,3.0,6.0,65,0.00,,,0.00,Wunderground v.1.15,2013-09-08 21:19:00,
2013-09-08 17:21:00,79.5,66.7,29.99,East,98,3.0,3.0,65,0.00,,,0.00,Wunderground v.1.15,2013-09-08 21:21:00,
2013-09-08 17:22:00,79.3,66.1,29.99,ESE,115,3.0,6.0,64,0.00,,,0.00,Wunderground v.1.15,2013-09-08 21:22:00,
2013-09-08 17:23:00,79.1,65.4,29.99,East,96,4.0,9.0,63,0.00,,,0.00,Wunderground v.1.15,2013-09-08 21:23:00,
2013-09-08 17:24:00,78.9,65.2,29.99,ENE,69,4.0,9.0,63,0.00,,,0.00,Wunderground v.1.15,2013-09-08 21:24:00,
2013-09-08 17:27:00,78.5,65.3,29.99,East,84,1.0,9.0,64,0.00,,,0.00,Wunderground v.1.15,2013-09-08 21:27:00,
2013-09-08 17:28:00,78.2,66.3,29.99,ESE,113,4.0,9.0,67,0.00,,,0.00,Wunderground v.1.15,2013-09-08 21:28:00,
2013-09-08 17:29:00,78.0,65.7,29.99,ESE,109,1.0,9.0,66,0.00,,,0.00,Wunderground v.1.15,2013-09-08 21:29:00,
2013-09-08 17:32:00,77.9,67.7,29.99,SSE,153,0.0,4.0,71,0.00,,,0.00,Wunderground v.1.15,2013-09-08 21:32:00,
2013-09-08 17:33:00,78.2,67.2,29.99,SSE,151,0.0,4.0,69,0.00,,,0.00,Wunderground v.1.15,2013-09-08 21:33:00,
2013-09-08 17:34:00,78.2,67.2,29.99,SSE,153,0.0,4.0,69,0.00,,,0.00,Wunderground v.1.15,2013-09-08 21:34:00,
2013-09-08 17:35:00,78.2,66.3,29.99,SSE,153,0.0,4.0,67,0.00,,,0.00,Wunderground v.1.15,2013-09-08 21:35:00,
2013-09-08 17:37:00,78.0,66.2,29.99,SSE,152,1.0,4.0,67,0.00,,,0.00,Wunderground v.1.15,2013-09-08 21:37:00,
2013-09-08 17:38:00,77.9,66.1,29.99,SSE,152,0.0,4.0,67,0.00,,,0.00,Wunderground v.1.15,2013-09-08 21:38:00,
2013-09-08 17:39:00,77.8,66.0,29.99,SSE,152,0.0,4.0,67,0.00,,,0.00,Wunderground v.1.15,2013-09-08 21:39:00,
2013-09-08 17:41:00,77.6,66.2,29.99,SSE,152,0.0,1.0,68,0.00,,,0.00,Wunderground v.1.15,2013-09-08 21:41:00,
2013-09-08 17:42:00,77.5,66.1,29.99,SSE,152,1.0,1.0,68,0.00,,,0.00,Wunderground v.1.15,2013-09-08 21:42:00,
2013-09-08 17:43:00,77.5,66.1,29.99,SSE,152,0.0,1.0,68,0.00,,,0.00,Wunderground v.1.15,2013-09-08 21:43:00,
2013-09-08 17:44:00,77.4,66.0,29.99,SSE,152,0.0,1.0,68,0.00,,,0.00,Wunderground v.1.15,2013-09-08 21:44:00,
2013-09-08 17:45:00,77.2,66.2,29.99,SSE,152,0.0,1.0,69,0.00,,,0.00,Wunderground v.1.15,2013-09-08 21:45:00,
2013-09-08 17:47:00,77.4,66.4,29.99,SE,133,1.0,1.0,69,0.00,,,0.00,Wunderground v.1.15,2013-09-08 21:47:00,
2013-09-08 17:49:00,77.7,66.3,29.99,SE,132,0.0,2.0,68,0.00,,,0.00,Wunderground v.1.15,2013-09-08 21:49:00,
2013-09-08 17:50:00,77.6,66.2,29.99,SE,132,0.0,1.0,68,0.00,,,0.00,Wunderground v.1.15,2013-09-08 21:50:00,
2013-09-08 17:52:00,77.3,66.3,29.99,SE,132,0.0,1.0,69,0.00,,,0.00,Wunderground v.1.15,2013-09-08 21:52:00,
2013-09-08 17:53:00,77.2,65.8,29.99,SE,132,0.0,1.0,68,0.00,,,0.00,Wunderground v.1.15,2013-09-08 21:53:00,
2013-09-08 17:54:00,77.1,66.1,29.99,SE,132,0.0,1.0,69,0.00,,,0.00,Wunderground v.1.15,2013-09-08 21:54:00,
2013-09-08 17:55:00,77.0,66.5,29.99,SE,132,0.0,1.0,70,0.00,,,0.00,Wunderground v.1.15,2013-09-08 21:55:00,
2013-09-08 17:57:00,77.7,68.0,29.99,SE,132,0.0,1.0,72,0.00,,,0.00,Wunderground v.1.15,2013-09-08 21:57:00,
2013-09-08 17:58:00,78.0,68.2,29.99,SE,132,0.0,1.0,72,0.00,,,0.00,Wunderground v.1.15,2013-09-08 21:58:00,
2013-09-08 17:59:00,78.1,68.3,29.99,SE,132,1.0,1.0,72,0.00,,,0.00,Wunderground v.1.15,2013-09-08 21:59:00,
2013-09-08 18:00:00,78.1,67.9,29.99,SE,132,0.0,0.0,71,0.00,,,0.00,Wunderground v.1.15,2013-09-08 22:00:00,
2013-09-08 18:03:00,77.7,66.3,29.99,East,88,1.0,3.0,68,0.00,,,0.00,Wunderground v.1.15,2013-09-08 22:03:00,
2013-09-08 18:04:00,77.5,65.7,29.99,East,88,0.0,3.0,67,0.00,,,0.00,Wunderground v.1.15,2013-09-08 22:04:00,
2013-09-08 18:05:00,77.5,66.1,29.99,East,88,0.0,3.0,68,0.00,,,0.00,Wunderground v.1.15,2013-09-08 22:05:00,
2013-09-08 18:06:00,77.4,66.4,29.99,East,88,0.0,3.0,69,0.00,,,0.00,Wunderground v.1.15,2013-09-08 22:06:00,
2013-09-08 18:08:00,77.2,65.8,29.99,East,96,1.0,3.0,68,0.00,,,0.00,Wunderground v.1.15,2013-09-08 22:08:00,
2013-09-08 18:10:00,77.0,66.0,29.99,East,96,0.0,1.0,69,0.00,,,0.00,Wunderground v.1.15,2013-09-08 22:10:00,
2013-09-08 18:11:00,77.0,66.0,29.99,East,96,0.0,1.0,69,0.00,,,0.00,Wunderground v.1.15,2013-09-08 22:11:00,
2013-09-08 18:12:00,77.2,66.2,29.99,East,96,0.0,1.0,69,0.00,,,0.00,Wunderground v.1.15,2013-09-08 22:12:00,
2013-09-08 18:15:00,77.2,65.8,29.98,East,96,0.0,1.0,68,0.00,,,0.00,Wunderground v.1.15,2013-09-08 22:15:00,
2013-09-08 18:16:00,77.2,65.8,29.98,East,96,0.0,1.0,68,0.00,,,0.00,Wunderground v.1.15,2013-09-08 22:16:00,
2013-09-08 18:18:00,77.1,66.1,29.98,East,98,3.0,3.0,69,0.00,,,0.00,Wunderground v.1.15,2013-09-08 22:18:00,
2013-09-08 18:20:00,77.2,67.1,29.98,ESE,102,0.0,0.0,71,0.00,,,0.00,Wunderground v.1.15,2013-09-08 22:20:00,
2013-09-08 18:21:00,77.2,65.8,29.98,ESE,102,0.0,1.0,68,0.00,,,0.00,Wunderground v.1.15,2013-09-08 22:21:00,
2013-09-08 18:23:00,77.3,66.3,29.98,ESE,102,0.0,2.0,69,0.00,,,0.00,Wunderground v.1.15,2013-09-08 22:23:00,
2013-09-08 18:25:00,77.2,65.8,29.98,ESE,102,0.0,2.0,68,0.00,,,0.00,Wunderground v.1.15,2013-09-08 22:25:00,
2013-09-08 18:26:00,77.2,66.2,29.98,ESE,102,0.0,2.0,69,0.00,,,0.00,Wunderground v.1.15,2013-09-08 22:26:00,
2013-09-08 18:27:00,77.1,66.1,29.98,ESE,102,3.0,3.0,69,0.00,,,0.00,Wunderground v.1.15,2013-09-08 22:27:00,
2013-09-08 18:28:00,77.1,65.7,29.98,ESE,105,3.0,3.0,68,0.00,,,0.00,Wunderground v.1.15,2013-09-08 22:28:00,
2013-09-08 18:30:00,76.8,65.4,29.98,ESE,115,0.0,1.0,68,0.00,,,0.00,Wunderground v.1.15,2013-09-08 22:30:00,
2013-09-08 18:31:00,76.7,65.3,29.98,ESE,115,1.0,2.0,68,0.00,,,0.00,Wunderground v.1.15,2013-09-08 22:31:00,
2013-09-08 18:32:00,76.7,65.3,29.98,ESE,115,0.0,2.0,68,0.00,,,0.00,Wunderground v.1.15,2013-09-08 22:32:00,
2013-09-08 18:33:00,76.7,65.8,29.98,ESE,115,1.0,2.0,69,0.00,,,0.00,Wunderground v.1.15,2013-09-08 22:33:00,
2013-09-08 18:35:00,76.8,66.3,29.98,ESE,115,0.0,2.0,70,0.00,,,0.00,Wunderground v.1.15,2013-09-08 22:35:00,
2013-09-08 18:37:00,76.8,65.4,29.98,ESE,115,0.0,2.0,68,0.00,,,0.00,Wunderground v.1.15,2013-09-08 22:37:00,
2013-09-08 18:38:00,76.7,65.3,29.98,ESE,115,0.0,2.0,68,0.00,,,0.00,Wunderground v.1.15,2013-09-08 22:38:00,
2013-09-08 18:40:00,76.3,65.4,29.98,ESE,115,0.0,0.0,69,0.00,,,0.00,Wunderground v.1.15,2013-09-08 22:40:00,
2013-09-08 18:42:00,76.1,65.2,29.98,ESE,115,0.0,1.0,69,0.00,,,0.00,Wunderground v.1.15,2013-09-08 22:42:00,
2013-09-08 18:43:00,76.1,66.0,29.98,ESE,115,0.0,1.0,71,0.00,,,0.00,Wunderground v.1.15,2013-09-08 22:43:00,
2013-09-08 18:45:00,75.9,65.8,29.98,ESE,115,0.0,1.0,71,0.00,,,0.00,Wunderground v.1.15,2013-09-08 22:45:00,
2013-09-08 18:46:00,75.8,65.7,29.98,ESE,115,0.0,1.0,71,0.00,,,0.00,Wunderground v.1.15,2013-09-08 22:46:00,
2013-09-08 18:48:00,75.7,65.6,29.98,ESE,115,0.0,1.0,71,0.00,,,0.00,Wunderground v.1.15,2013-09-08 22:48:00,
2013-09-08 18:49:00,75.7,65.6,29.98,ESE,115,1.0,1.0,71,0.00,,,0.00,Wunderground v.1.15,2013-09-08 22:49:00,
2013-09-08 18:50:00,75.6,65.1,29.97,ESE,115,0.0,1.0,70,0.00,,,0.00,Wunderground v.1.15,2013-09-08 22:50:00,
2013-09-08 18:51:00,75.6,65.9,29.97,ESE,115,0.0,1.0,72,0.00,,,0.00,Wunderground v.1.15,2013-09-08 22:51:00,
2013-09-08 18:53:00,75.6,66.3,29.98,ESE,115,0.0,1.0,73,0.00,,,0.00,Wunderground v.1.15,2013-09-08 22:53:00,
2013-09-08 18:54:00,75.6,65.5,29.97,ESE,115,0.0,1.0,71,0.00,,,0.00,Wunderground v.1.15,2013-09-08 22:54:00,
2013-09-08 18:55:00,75.7,65.6,29.97,ESE,115,0.0,1.0,71,0.00,,,0.00,Wunderground v.1.15,2013-09-08 22:55:00,
2013-09-08 18:56:00,75.7,65.6,29.97,ESE,115,0.0,1.0,71,0.00,,,0.00,Wunderground v.1.15,2013-09-08 22:56:00,
2013-09-08 18:58:00,75.7,66.0,29.97,ESE,115,0.0,1.0,72,0.00,,,0.00,Wunderground v.1.15,2013-09-08 22:58:00,
2013-09-08 18:59:00,75.6,65.9,29.97,ESE,115,0.0,1.0,72,0.00,,,0.00,Wunderground v.1.15,2013-09-08 22:59:00,
2013-09-08 19:01:00,75.6,65.9,29.97,ESE,115,0.0,0.0,72,0.00,,,0.00,Wunderground v.1.15,2013-09-08 23:01:00,
2013-09-08 19:02:00,75.5,66.2,29.97,ESE,115,0.0,0.0,73,0.00,,,0.00,Wunderground v.1.15,2013-09-08 23:02:00,
2013-09-08 19:04:00,75.4,65.7,29.98,ESE,115,0.0,0.0,72,0.00,,,0.00,Wunderground v.1.15,2013-09-08 23:04:00,
2013-09-08 19:06:00,75.4,66.1,29.97,ESE,115,0.0,1.0,73,0.00,,,0.00,Wunderground v.1.15,2013-09-08 23:06:00,
2013-09-08 19:07:00,75.3,65.6,29.97,ESE,115,0.0,1.0,72,0.00,,,0.00,Wunderground v.1.15,2013-09-08 23:07:00,
2013-09-08 19:08:00,75.3,65.6,29.97,ESE,115,0.0,1.0,72,0.00,,,0.00,Wunderground v.1.15,2013-09-08 23:08:00,
2013-09-08 19:09:00,75.3,65.6,29.97,ESE,115,0.0,2.0,72,0.00,,,0.00,Wunderground v.1.15,2013-09-08 23:09:00,
2013-09-08 19:10:00,75.3,65.6,29.97,ESE,115,0.0,1.0,72,0.00,,,0.00,Wunderground v.1.15,2013-09-08 23:10:00,
2013-09-08 19:11:00,75.3,65.6,29.97,ESE,115,0.0,1.0,72,0.00,,,0.00,Wunderground v.1.15,2013-09-08 23:11:00,
2013-09-08 19:12:00,75.3,65.6,29.97,ESE,115,0.0,1.0,72,0.00,,,0.00,Wunderground v.1.15,2013-09-08 23:12:00,
2013-09-08 19:13:00,75.3,66.0,29.97,ESE,115,0.0,1.0,73,0.00,,,0.00,Wunderground v.1.15,2013-09-08 23:13:00,
2013-09-08 19:15:00,75.3,66.0,29.97,ESE,115,0.0,1.0,73,0.00,,,0.00,Wunderground v.1.15,2013-09-08 23:15:00,
2013-09-08 19:16:00,75.3,66.0,29.97,ESE,115,0.0,1.0,73,0.00,,,0.00,Wunderground v.1.15,2013-09-08 23:16:00,
2013-09-08 19:17:00,75.3,66.0,29.97,ESE,115,0.0,1.0,73,0.00,,,0.00,Wunderground v.1.15,2013-09-08 23:17:00,
2013-09-08 19:18:00,75.2,65.9,29.97,ESE,115,0.0,1.0,73,0.00,,,0.00,Wunderground v.1.15,2013-09-08 23:18:00,
2013-09-08 19:21:00,75.1,65.9,29.97,ESE,115,0.0,1.0,73,0.00,,,0.00,Wunderground v.1.15,2013-09-08 23:21:00,
2013-09-08 19:22:00,75.1,65.9,29.97,ESE,115,0.0,1.0,73,0.00,,,0.00,Wunderground v.1.15,2013-09-08 23:22:00,
2013-09-08 19:23:00,75.1,65.9,29.97,ESE,115,0.0,1.0,73,0.00,,,0.00,Wunderground v.1.15,2013-09-08 23:23:00,
2013-09-08 19:24:00,75.1,65.9,29.97,ESE,115,0.0,1.0,73,0.00,,,0.00,Wunderground v.1.15,2013-09-08 23:24:00,
2013-09-08 19:25:00,75.0,65.8,29.97,ESE,115,0.0,1.0,73,0.00,,,0.00,Wunderground v.1.15,2013-09-08 23:25:00,
2013-09-08 19:26:00,74.9,65.7,29.97,ESE,115,0.0,1.0,73,0.00,,,0.00,Wunderground v.1.15,2013-09-08 23:26:00,
2013-09-08 19:27:00,74.9,65.7,29.97,ESE,115,0.0,1.0,73,0.00,,,0.00,Wunderground v.1.15,2013-09-08 23:27:00,
2013-09-08 19:28:00,74.9,65.7,29.97,ESE,115,0.0,1.0,73,0.00,,,0.00,Wunderground v.1.15,2013-09-08 23:28:00,
2013-09-08 19:32:00,74.9,66.1,29.97,ESE,115,0.0,1.0,74,0.00,,,0.00,Wunderground v.1.15,2013-09-08 23:32:00,
2013-09-08 19:34:00,74.8,65.6,29.97,ESE,115,0.0,1.0,73,0.00,,,0.00,Wunderground v.1.15,2013-09-08 23:34:00,
2013-09-08 19:37:00,74.8,65.6,29.97,ESE,115,0.0,1.0,73,0.00,,,0.00,Wunderground v.1.15,2013-09-08 23:37:00,
2013-09-08 19:38:00,74.8,65.6,29.97,ESE,115,0.0,1.0,73,0.00,,,0.00,Wunderground v.1.15,2013-09-08 23:38:00,
2013-09-08 19:39:00,74.8,65.6,29.97,ESE,115,0.0,1.0,73,0.00,,,0.00,Wunderground v.1.15,2013-09-08 23:39:00,
2013-09-08 19:42:00,74.7,65.5,29.97,ESE,115,0.0,0.0,73,0.00,,,0.00,Wunderground v.1.15,2013-09-08 23:42:00,
2013-09-08 19:43:00,74.6,65.4,29.97,ESE,115,0.0,0.0,73,0.00,,,0.00,Wunderground v.1.15,2013-09-08 23:43:00,
2013-09-08 19:44:00,74.5,65.3,29.97,ESE,115,0.0,0.0,73,0.00,,,0.00,Wunderground v.1.15,2013-09-08 23:44:00,
2013-09-08 19:47:00,74.3,65.9,29.97,ESE,115,0.0,0.0,75,0.00,,,0.00,Wunderground v.1.15,2013-09-08 23:47:00,
2013-09-08 19:48:00,74.2,65.8,29.97,ESE,115,0.0,0.0,75,0.00,,,0.00,Wunderground v.1.15,2013-09-08 23:48:00,
2013-09-08 19:50:00,74.1,65.3,29.97,ESE,115,0.0,0.0,74,0.00,,,0.00,Wunderground v.1.15,2013-09-08 23:50:00,
2013-09-08 19:51:00,74.1,65.3,29.97,ESE,115,0.0,0.0,74,0.00,,,0.00,Wunderground v.1.15,2013-09-08 23:51:00,
2013-09-08 19:52:00,74.0,65.6,29.97,ESE,115,0.0,1.0,75,0.00,,,0.00,Wunderground v.1.15,2013-09-08 23:52:00,
2013-09-08 19:53:00,73.9,65.5,29.97,ESE,115,0.0,1.0,75,0.00,,,0.00,Wunderground v.1.15,2013-09-08 23:53:00,
2013-09-08 19:56:00,73.7,65.3,29.97,ESE,115,0.0,1.0,75,0.00,,,0.00,Wunderground v.1.15,2013-09-08 23:56:00,
2013-09-08 19:57:00,73.6,65.6,29.97,ESE,115,0.0,1.0,76,0.00,,,0.00,Wunderground v.1.15,2013-09-08 23:57:00,
2013-09-08 19:58:00,73.6,65.6,29.97,ESE,115,0.0,1.0,76,0.00,,,0.00,Wunderground v.1.15,2013-09-08 23:58:00,
2013-09-08 20:00:00,73.5,65.5,29.97,ESE,115,0.0,0.0,76,0.00,,,0.00,Wunderground v.1.15,2013-09-09 00:00:00,
2013-09-08 20:02:00,73.4,65.4,29.97,ESE,115,0.0,1.0,76,0.00,,,0.00,Wunderground v.1.15,2013-09-09 00:02:00,
2013-09-08 20:03:00,73.3,65.3,29.97,ESE,115,0.0,1.0,76,0.00,,,0.00,Wunderground v.1.15,2013-09-09 00:03:00,
2013-09-08 20:06:00,73.1,65.1,29.97,ESE,115,0.0,1.0,76,0.00,,,0.00,Wunderground v.1.15,2013-09-09 00:06:00,
2013-09-08 20:07:00,73.0,65.4,29.97,ESE,115,0.0,1.0,77,0.00,,,0.00,Wunderground v.1.15,2013-09-09 00:07:00,
2013-09-08 20:08:00,73.0,65.4,29.97,ESE,115,0.0,1.0,77,0.00,,,0.00,Wunderground v.1.15,2013-09-09 00:08:00,
2013-09-08 20:09:00,72.9,65.3,29.97,ESE,115,0.0,1.0,77,0.00,,,0.00,Wunderground v.1.15,2013-09-09 00:09:00,
2013-09-08 20:11:00,72.8,65.2,29.97,ESE,115,0.0,0.0,77,0.00,,,0.00,Wunderground v.1.15,2013-09-09 00:11:00,
2013-09-08 20:12:00,72.7,65.4,29.97,ESE,115,0.0,0.0,78,0.00,,,0.00,Wunderground v.1.15,2013-09-09 00:12:00,
2013-09-08 20:13:00,72.7,65.4,29.97,ESE,115,0.0,0.0,78,0.00,,,0.00,Wunderground v.1.15,2013-09-09 00:13:00,
2013-09-08 20:14:00,72.6,65.3,29.97,ESE,115,0.0,0.0,78,0.00,,,0.00,Wunderground v.1.15,2013-09-09 00:14:00,
2013-09-08 20:17:00,72.5,65.2,29.97,ESE,115,0.0,0.0,78,0.00,,,0.00,Wunderground v.1.15,2013-09-09 00:17:00,
2013-09-08 20:18:00,72.4,65.2,29.97,ESE,115,0.0,0.0,78,0.00,,,0.00,Wunderground v.1.15,2013-09-09 00:18:00,
2013-09-08 20:19:00,72.4,65.2,29.97,ESE,115,0.0,0.0,78,0.00,,,0.00,Wunderground v.1.15,2013-09-09 00:19:00,
2013-09-08 20:20:00,72.3,65.1,29.97,ESE,115,0.0,0.0,78,0.00,,,0.00,Wunderground v.1.15,2013-09-09 00:20:00,
2013-09-08 20:23:00,72.2,65.3,29.97,ESE,115,0.0,0.0,79,0.00,,,0.00,Wunderground v.1.15,2013-09-09 00:23:00,
2013-09-08 20:24:00,72.1,65.2,29.97,ESE,115,0.0,0.0,79,0.00,,,0.00,Wunderground v.1.15,2013-09-09 00:24:00,
2013-09-08 20:25:00,72.1,65.2,29.97,ESE,115,0.0,0.0,79,0.00,,,0.00,Wunderground v.1.15,2013-09-09 00:25:00,
2013-09-08 20:26:00,72.0,65.1,29.97,ESE,115,0.0,0.0,79,0.00,,,0.00,Wunderground v.1.15,2013-09-09 00:26:00,
2013-09-08 20:28:00,71.9,65.0,29.97,ESE,115,0.0,0.0,79,0.00,,,0.00,Wunderground v.1.15,2013-09-09 00:28:00,
2013-09-08 20:31:00,71.9,65.0,29.98,ESE,115,0.0,0.0,79,0.00,,,0.00,Wunderground v.1.15,2013-09-09 00:31:00,
2013-09-08 20:32:00,71.8,64.9,29.97,ESE,115,0.0,0.0,79,0.00,,,0.00,Wunderground v.1.15,2013-09-09 00:32:00,
2013-09-08 20:33:00,71.8,64.9,29.97,ESE,115,0.0,0.0,79,0.00,,,0.00,Wunderground v.1.15,2013-09-09 00:33:00,
2013-09-08 20:34:00,71.7,64.8,29.97,ESE,115,0.0,0.0,79,0.00,,,0.00,Wunderground v.1.15,2013-09-09 00:34:00,
2013-09-08 20:36:00,71.7,65.2,29.97,ESE,115,0.0,0.0,80,0.00,,,0.00,Wunderground v.1.15,2013-09-09 00:36:00,
2013-09-08 20:37:00,71.7,65.2,29.97,ESE,115,0.0,0.0,80,0.00,,,0.00,Wunderground v.1.15,2013-09-09 00:37:00,
2013-09-08 20:38:00,71.6,65.1,29.98,ESE,115,0.0,0.0,80,0.00,,,0.00,Wunderground v.1.15,2013-09-09 00:38:00,
2013-09-08 20:39:00,71.6,65.1,29.98,ESE,115,0.0,0.0,80,0.00,,,0.00,Wunderground v.1.15,2013-09-09 00:39:00,
2013-09-08 20:41:00,71.6,65.1,29.98,ESE,115,0.0,0.0,80,0.00,,,0.00,Wunderground v.1.15,2013-09-09 00:41:00,
2013-09-08 20:42:00,71.5,65.0,29.98,ESE,115,0.0,0.0,80,0.00,,,0.00,Wunderground v.1.15,2013-09-09 00:42:00,
2013-09-08 20:44:00,71.5,65.0,29.98,ESE,115,0.0,0.0,80,0.00,,,0.00,Wunderground v.1.15,2013-09-09 00:44:00,
2013-09-08 20:45:00,71.5,65.0,29.98,ESE,115,0.0,0.0,80,0.00,,,0.00,Wunderground v.1.15,2013-09-09 00:45:00,
2013-09-08 20:46:00,71.4,64.9,29.98,ESE,115,0.0,0.0,80,0.00,,,0.00,Wunderground v.1.15,2013-09-09 00:46:00,
2013-09-08 20:47:00,71.4,64.9,29.98,ESE,115,0.0,0.0,80,0.00,,,0.00,Wunderground v.1.15,2013-09-09 00:47:00,
2013-09-08 20:48:00,71.3,64.8,29.98,ESE,115,0.0,0.0,80,0.00,,,0.00,Wunderground v.1.15,2013-09-09 00:48:00,
2013-09-08 20:49:00,71.3,64.8,29.97,ESE,115,0.0,0.0,80,0.00,,,0.00,Wunderground v.1.15,2013-09-09 00:49:00,
2013-09-08 20:50:00,71.3,64.8,29.97,ESE,115,0.0,0.0,80,0.00,,,0.00,Wunderground v.1.15,2013-09-09 00:50:00,
2013-09-08 20:52:00,71.3,64.8,29.97,ESE,115,0.0,0.0,80,0.00,,,0.00,Wunderground v.1.15,2013-09-09 00:52:00,
2013-09-08 20:53:00,71.2,65.1,29.97,ESE,115,0.0,0.0,81,0.00,,,0.00,Wunderground v.1.15,2013-09-09 00:53:00,
2013-09-08 20:54:00,71.1,65.0,29.97,ESE,115,0.0,0.0,81,0.00,,,0.00,Wunderground v.1.15,2013-09-09 00:54:00,
2013-09-08 20:55:00,71.1,65.0,29.97,ESE,115,0.0,0.0,81,0.00,,,0.00,Wunderground v.1.15,2013-09-09 00:55:00,
2013-09-08 20:56:00,71.1,65.0,29.97,ESE,115,0.0,0.0,81,0.00,,,0.00,Wunderground v.1.15,2013-09-09 00:56:00,
2013-09-08 20:58:00,71.0,64.9,29.98,ESE,115,0.0,0.0,81,0.00,,,0.00,Wunderground v.1.15,2013-09-09 00:58:00,
2013-09-08 20:59:00,71.0,64.9,29.97,ESE,115,0.0,0.0,81,0.00,,,0.00,Wunderground v.1.15,2013-09-09 00:59:00,
2013-09-08 21:00:00,70.9,64.8,29.97,ESE,115,0.0,1.0,81,0.00,,,0.00,Wunderground v.1.15,2013-09-09 01:00:00,
2013-09-08 21:01:00,70.9,64.8,29.97,ESE,115,0.0,1.0,81,0.00,,,0.00,Wunderground v.1.15,2013-09-09 01:01:00,
2013-09-08 21:03:00,70.8,64.7,29.97,ESE,115,0.0,1.0,81,0.00,,,0.00,Wunderground v.1.15,2013-09-09 01:03:00,
2013-09-08 21:04:00,70.8,64.7,29.97,ESE,115,0.0,1.0,81,0.00,,,0.00,Wunderground v.1.15,2013-09-09 01:04:00,
2013-09-08 21:05:00,70.8,64.7,29.97,ESE,115,0.0,1.0,81,0.00,,,0.00,Wunderground v.1.15,2013-09-09 01:05:00,
2013-09-08 21:06:00,70.7,64.6,29.97,ESE,115,0.0,1.0,81,0.00,,,0.00,Wunderground v.1.15,2013-09-09 01:06:00,
2013-09-08 21:07:00,70.7,64.6,29.98,ESE,115,0.0,1.0,81,0.00,,,0.00,Wunderground v.1.15,2013-09-09 01:07:00,
2013-09-08 21:08:00,70.7,64.9,29.97,ESE,115,0.0,1.0,82,0.00,,,0.00,Wunderground v.1.15,2013-09-09 01:08:00,
2013-09-08 21:09:00,70.6,64.8,29.98,ESE,115,0.0,1.0,82,0.00,,,0.00,Wunderground v.1.15,2013-09-09 01:09:00,
2013-09-08 21:10:00,70.6,64.8,29.97,ESE,115,0.0,0.0,82,0.00,,,0.00,Wunderground v.1.15,2013-09-09 01:10:00,
2013-09-08 21:12:00,70.5,64.7,29.97,ESE,115,0.0,1.0,82,0.00,,,0.00,Wunderground v.1.15,2013-09-09 01:12:00,
2013-09-08 21:13:00,70.5,64.7,29.97,ESE,115,0.0,1.0,82,0.00,,,0.00,Wunderground v.1.15,2013-09-09 01:13:00,
2013-09-08 21:14:00,70.5,64.7,29.97,ESE,115,0.0,1.0,82,0.00,,,0.00,Wunderground v.1.15,2013-09-09 01:14:00,
2013-09-08 21:15:00,70.4,64.6,29.97,ESE,115,0.0,1.0,82,0.00,,,0.00,Wunderground v.1.15,2013-09-09 01:15:00,
2013-09-08 21:18:00,70.4,64.6,29.97,ESE,115,0.0,1.0,82,0.00,,,0.00,Wunderground v.1.15,2013-09-09 01:18:00,
2013-09-08 21:19:00,70.3,64.5,29.97,ESE,115,0.0,1.0,82,0.00,,,0.00,Wunderground v.1.15,2013-09-09 01:19:00,
2013-09-08 21:20:00,70.3,64.5,29.98,ESE,115,0.0,0.0,82,0.00,,,0.00,Wunderground v.1.15,2013-09-09 01:20:00,
2013-09-08 21:24:00,70.2,64.4,29.98,ESE,115,0.0,0.0,82,0.00,,,0.00,Wunderground v.1.15,2013-09-09 01:24:00,
2013-09-08 21:25:00,70.2,64.4,29.98,ESE,115,0.0,0.0,82,0.00,,,0.00,Wunderground v.1.15,2013-09-09 01:25:00,
2013-09-08 21:26:00,70.2,64.4,29.98,ESE,115,0.0,1.0,82,0.00,,,0.00,Wunderground v.1.15,2013-09-09 01:26:00,
2013-09-08 21:30:00,70.1,64.7,29.98,ESE,115,0.0,0.0,83,0.00,,,0.00,Wunderground v.1.15,2013-09-09 01:30:00,
2013-09-08 21:31:00,70.1,64.7,29.98,ESE,115,0.0,0.0,83,0.00,,,0.00,Wunderground v.1.15,2013-09-09 01:31:00,
2013-09-08 21:32:00,70.0,64.6,29.98,ESE,115,0.0,0.0,83,0.00,,,0.00,Wunderground v.1.15,2013-09-09 01:32:00,
2013-09-08 21:35:00,70.0,64.6,29.98,ESE,115,0.0,0.0,83,0.00,,,0.00,Wunderground v.1.15,2013-09-09 01:35:00,
2013-09-08 21:36:00,69.9,64.5,29.98,ESE,115,0.0,0.0,83,0.00,,,0.00,Wunderground v.1.15,2013-09-09 01:36:00,
2013-09-08 21:38:00,69.9,64.5,29.98,ESE,115,0.0,0.0,83,0.00,,,0.00,Wunderground v.1.15,2013-09-09 01:38:00,
2013-09-08 21:40:00,69.8,64.4,29.98,ESE,115,0.0,0.0,83,0.00,,,0.00,Wunderground v.1.15,2013-09-09 01:40:00,
2013-09-08 21:41:00,69.8,64.4,29.98,ESE,115,0.0,0.0,83,0.00,,,0.00,Wunderground v.1.15,2013-09-09 01:41:00,
2013-09-08 21:43:00,69.7,64.3,29.98,ESE,115,0.0,0.0,83,0.00,,,0.00,Wunderground v.1.15,2013-09-09 01:43:00,
2013-09-08 21:45:00,69.5,64.1,29.98,ESE,115,0.0,0.0,83,0.00,,,0.00,Wunderground v.1.15,2013-09-09 01:45:00,
2013-09-08 21:46:00,69.5,64.1,29.98,ESE,115,0.0,0.0,83,0.00,,,0.00,Wunderground v.1.15,2013-09-09 01:46:00,
2013-09-08 21:48:00,69.4,64.4,29.98,ESE,115,0.0,0.0,84,0.00,,,0.00,Wunderground v.1.15,2013-09-09 01:48:00,
2013-09-08 21:51:00,69.2,64.2,29.98,ESE,115,0.0,0.0,84,0.00,,,0.00,Wunderground v.1.15,2013-09-09 01:51:00,
2013-09-08 21:53:00,69.2,64.5,29.98,ESE,115,0.0,0.0,85,0.00,,,0.00,Wunderground v.1.15,2013-09-09 01:53:00,
2013-09-08 21:54:00,69.1,64.4,29.98,ESE,115,0.0,0.0,85,0.00,,,0.00,Wunderground v.1.15,2013-09-09 01:54:00,
2013-09-08 21:56:00,69.1,64.4,29.98,ESE,115,0.0,0.0,85,0.00,,,0.00,Wunderground v.1.15,2013-09-09 01:56:00,
2013-09-08 21:57:00,69.1,64.4,29.98,ESE,115,0.0,0.0,85,0.00,,,0.00,Wunderground v.1.15,2013-09-09 01:57:00,
2013-09-08 21:58:00,69.1,64.4,29.98,ESE,115,0.0,0.0,85,0.00,,,0.00,Wunderground v.1.15,2013-09-09 01:58:00,
2013-09-08 22:00:00,69.0,64.3,29.97,ESE,115,0.0,0.0,85,0.00,,,0.00,Wunderground v.1.15,2013-09-09 02:00:00,
2013-09-08 22:01:00,69.0,64.3,29.97,ESE,115,0.0,0.0,85,0.00,,,0.00,Wunderground v.1.15,2013-09-09 02:01:00,
2013-09-08 22:02:00,69.0,64.3,29.97,ESE,115,0.0,0.0,85,0.00,,,0.00,Wunderground v.1.15,2013-09-09 02:02:00,
2013-09-08 22:03:00,68.9,64.2,29.97,ESE,115,1.0,1.0,85,0.00,,,0.00,Wunderground v.1.15,2013-09-09 02:03:00,
2013-09-08 22:05:00,68.9,64.2,29.97,ESE,115,0.0,1.0,85,0.00,,,0.00,Wunderground v.1.15,2013-09-09 02:05:00,
2013-09-08 22:06:00,68.8,64.1,29.96,ESE,115,0.0,1.0,85,0.00,,,0.00,Wunderground v.1.15,2013-09-09 02:06:00,
2013-09-08 22:07:00,68.8,64.1,29.96,ESE,115,0.0,1.0,85,0.00,,,0.00,Wunderground v.1.15,2013-09-09 02:07:00,
2013-09-08 22:08:00,68.8,64.4,29.96,ESE,115,0.0,1.0,86,0.00,,,0.00,Wunderground v.1.15,2013-09-09 02:08:00,
2013-09-08 22:10:00,68.8,64.4,29.96,ESE,115,0.0,0.0,86,0.00,,,0.00,Wunderground v.1.15,2013-09-09 02:10:00,
2013-09-08 22:12:00,68.8,64.4,29.96,ESE,115,0.0,0.0,86,0.00,,,0.00,Wunderground v.1.15,2013-09-09 02:12:00,
2013-09-08 22:13:00,68.7,64.3,29.96,ESE,115,0.0,0.0,86,0.00,,,0.00,Wunderground v.1.15,2013-09-09 02:13:00,
2013-09-08 22:14:00,68.7,64.3,29.96,ESE,115,0.0,1.0,86,0.00,,,0.00,Wunderground v.1.15,2013-09-09 02:14:00,
2013-09-08 22:15:00,68.7,64.3,29.96,ESE,115,0.0,1.0,86,0.00,,,0.00,Wunderground v.1.15,2013-09-09 02:15:00,
2013-09-08 22:17:00,68.6,64.2,29.96,ESE,115,0.0,1.0,86,0.00,,,0.00,Wunderground v.1.15,2013-09-09 02:17:00,
2013-09-08 22:18:00,68.7,64.3,29.96,ESE,115,0.0,1.0,86,0.00,,,0.00,Wunderground v.1.15,2013-09-09 02:18:00,
2013-09-08 22:19:00,68.7,64.3,29.96,ESE,115,0.0,1.0,86,0.00,,,0.00,Wunderground v.1.15,2013-09-09 02:19:00,
2013-09-08 22:20:00,68.6,64.2,29.96,ESE,115,0.0,0.0,86,0.00,,,0.00,Wunderground v.1.15,2013-09-09 02:20:00,
2013-09-08 22:21:00,68.6,64.2,29.96,ESE,115,0.0,1.0,86,0.00,,,0.00,Wunderground v.1.15,2013-09-09 02:21:00,
2013-09-08 22:22:00,68.6,64.2,29.96,ESE,115,0.0,1.0,86,0.00,,,0.00,Wunderground v.1.15,2013-09-09 02:22:00,
2013-09-08 22:23:00,68.6,64.2,29.96,ESE,115,0.0,1.0,86,0.00,,,0.00,Wunderground v.1.15,2013-09-09 02:23:00,
2013-09-08 22:25:00,68.6,64.2,29.96,ESE,115,0.0,1.0,86,0.00,,,0.00,Wunderground v.1.15,2013-09-09 02:25:00,
2013-09-08 22:26:00,68.6,64.2,29.96,ESE,115,0.0,1.0,86,0.00,,,0.00,Wunderground v.1.15,2013-09-09 02:26:00,
2013-09-08 22:27:00,68.6,64.2,29.96,ESE,115,0.0,1.0,86,0.00,,,0.00,Wunderground v.1.15,2013-09-09 02:27:00,
2013-09-08 22:28:00,68.6,64.2,29.96,ESE,115,0.0,1.0,86,0.00,,,0.00,Wunderground v.1.15,2013-09-09 02:28:00,
2013-09-08 22:30:00,68.6,64.2,29.96,ESE,115,0.0,0.0,86,0.00,,,0.00,Wunderground v.1.15,2013-09-09 02:30:00,
2013-09-08 22:31:00,68.6,64.2,29.97,ESE,115,0.0,1.0,86,0.00,,,0.00,Wunderground v.1.15,2013-09-09 02:31:00,
2013-09-08 22:32:00,68.7,64.3,29.97,ESE,115,0.0,1.0,86,0.00,,,0.00,Wunderground v.1.15,2013-09-09 02:32:00,
2013-09-08 22:33:00,68.6,64.2,29.96,ESE,115,0.0,1.0,86,0.00,,,0.00,Wunderground v.1.15,2013-09-09 02:33:00,
2013-09-08 22:36:00,68.7,64.3,29.96,ESE,115,0.0,1.0,86,0.00,,,0.00,Wunderground v.1.15,2013-09-09 02:36:00,
2013-09-08 22:37:00,68.7,64.3,29.96,ESE,115,0.0,1.0,86,0.00,,,0.00,Wunderground v.1.15,2013-09-09 02:37:00,
2013-09-08 22:38:00,68.7,64.3,29.96,ESE,115,0.0,1.0,86,0.00,,,0.00,Wunderground v.1.15,2013-09-09 02:38:00,
2013-09-08 22:39:00,68.7,64.3,29.96,ESE,115,0.0,1.0,86,0.00,,,0.00,Wunderground v.1.15,2013-09-09 02:39:00,
2013-09-08 22:42:00,68.7,64.3,29.97,ESE,115,0.0,1.0,86,0.00,,,0.00,Wunderground v.1.15,2013-09-09 02:42:00,
2013-09-08 22:43:00,68.7,64.3,29.97,ESE,115,0.0,1.0,86,0.00,,,0.00,Wunderground v.1.15,2013-09-09 02:43:00,
2013-09-08 22:44:00,68.8,64.4,29.97,ESE,115,0.0,1.0,86,0.00,,,0.00,Wunderground v.1.15,2013-09-09 02:44:00,
2013-09-08 22:48:00,68.7,64.3,29.97,ESE,115,1.0,1.0,86,0.00,,,0.00,Wunderground v.1.15,2013-09-09 02:48:00,
2013-09-08 22:49:00,68.7,64.3,29.97,ESE,115,0.0,1.0,86,0.00,,,0.00,Wunderground v.1.15,2013-09-09 02:49:00,
2013-09-08 22:50:00,68.7,64.3,29.97,ESE,115,0.0,2.0,86,0.00,,,0.00,Wunderground v.1.15,2013-09-09 02:50:00,
2013-09-08 22:53:00,68.7,64.3,29.97,ESE,115,0.0,2.0,86,0.00,,,0.00,Wunderground v.1.15,2013-09-09 02:53:00,
2013-09-08 22:54:00,68.7,64.3,29.97,ESE,115,1.0,2.0,86,0.00,,,0.00,Wunderground v.1.15,2013-09-09 02:54:00,
2013-09-08 22:55:00,68.7,64.3,29.96,ESE,115,0.0,2.0,86,0.00,,,0.00,Wunderground v.1.15,2013-09-09 02:55:00,
2013-09-08 22:58:00,68.7,64.3,29.96,ESE,115,2.0,3.0,86,0.00,,,0.00,Wunderground v.1.15,2013-09-09 02:58:00,
2013-09-08 22:59:00,68.8,64.4,29.96,ESE,115,1.0,3.0,86,0.00,,,0.00,Wunderground v.1.15,2013-09-09 02:59:00,
2013-09-08 23:00:00,68.8,64.4,29.96,ESE,115,0.0,1.0,86,0.00,,,0.00,Wunderground v.1.15,2013-09-09 03:00:00,
2013-09-08 23:03:00,68.8,64.4,29.96,ESE,115,2.0,3.0,86,0.00,,,0.00,Wunderground v.1.15,2013-09-09 03:03:00,
2013-09-08 23:04:00,68.8,64.4,29.96,ESE,118,3.0,3.0,86,0.00,,,0.00,Wunderground v.1.15,2013-09-09 03:04:00,
2013-09-08 23:05:00,68.8,64.4,29.96,ESE,118,2.0,3.0,86,0.00,,,0.00,Wunderground v.1.15,2013-09-09 03:05:00,
2013-09-08 23:06:00,68.8,64.4,29.96,ESE,118,1.0,3.0,86,0.00,,,0.00,Wunderground v.1.15,2013-09-09 03:06:00,
2013-09-08 23:08:00,68.8,64.4,29.97,ESE,118,1.0,3.0,86,0.00,,,0.00,Wunderground v.1.15,2013-09-09 03:08:00,
2013-09-08 23:09:00,68.8,64.4,29.97,ESE,118,0.0,3.0,86,0.00,,,0.00,Wunderground v.1.15,2013-09-09 03:09:00,
2013-09-08 23:10:00,68.8,64.4,29.97,ESE,118,0.0,2.0,86,0.00,,,0.00,Wunderground v.1.15,2013-09-09 03:10:00,
2013-09-08 23:12:00,68.8,64.4,29.97,ESE,118,0.0,2.0,86,0.00,,,0.00,Wunderground v.1.15,2013-09-09 03:12:00,
2013-09-08 23:14:00,68.7,64.3,29.97,ESE,116,0.0,2.0,86,0.00,,,0.00,Wunderground v.1.15,2013-09-09 03:14:00,
2013-09-08 23:15:00,68.7,64.3,29.97,ESE,115,1.0,2.0,86,0.00,,,0.00,Wunderground v.1.15,2013-09-09 03:15:00,
2013-09-08 23:18:00,68.6,64.2,29.97,ESE,111,1.0,2.0,86,0.00,,,0.00,Wunderground v.1.15,2013-09-09 03:18:00,
2013-09-08 23:19:00,68.6,64.2,29.97,ESE,111,3.0,3.0,86,0.00,,,0.00,Wunderground v.1.15,2013-09-09 03:19:00,
2013-09-08 23:23:00,68.6,64.2,29.97,ESE,111,2.0,3.0,86,0.00,,,0.00,Wunderground v.1.15,2013-09-09 03:23:00,
2013-09-08 23:24:00,68.6,64.2,29.97,ESE,111,1.0,3.0,86,0.00,,,0.00,Wunderground v.1.15,2013-09-09 03:24:00,
2013-09-08 23:25:00,68.6,64.2,29.97,ESE,111,2.0,3.0,86,0.00,,,0.00,Wunderground v.1.15,2013-09-09 03:25:00,
2013-09-08 23:28:00,68.5,64.1,29.97,ESE,111,2.0,3.0,86,0.00,,,0.00,Wunderground v.1.15,2013-09-09 03:28:00,
2013-09-08 23:29:00,68.5,64.1,29.97,ESE,109,1.0,3.0,86,0.00,,,0.00,Wunderground v.1.15,2013-09-09 03:29:00,
2013-09-08 23:30:00,68.5,64.1,29.97,ESE,109,2.0,3.0,86,0.00,,,0.00,Wunderground v.1.15,2013-09-09 03:30:00,
2013-09-08 23:33:00,68.5,64.1,29.97,ESE,110,3.0,4.0,86,0.00,,,0.00,Wunderground v.1.15,2013-09-09 03:33:00,
2013-09-08 23:34:00,68.5,64.1,29.97,ESE,113,2.0,4.0,86,0.00,,,0.00,Wunderground v.1.15,2013-09-09 03:34:00,
2013-09-08 23:35:00,68.5,64.1,29.97,ESE,113,2.0,4.0,86,0.00,,,0.00,Wunderground v.1.15,2013-09-09 03:35:00,
2013-09-08 23:38:00,68.5,64.1,29.97,ESE,108,2.0,4.0,86,0.00,,,0.00,Wunderground v.1.15,2013-09-09 03:38:00,
2013-09-08 23:40:00,68.5,64.1,29.97,ESE,108,1.0,2.0,86,0.00,,,0.00,Wunderground v.1.15,2013-09-09 03:40:00,
2013-09-08 23:44:00,68.5,64.1,29.97,ESE,114,1.0,3.0,86,0.00,,,0.00,Wunderground v.1.15,2013-09-09 03:44:00,
2013-09-08 23:45:00,68.5,64.1,29.97,ESE,117,3.0,4.0,86,0.00,,,0.00,Wunderground v.1.15,2013-09-09 03:45:00,
2013-09-08 23:46:00,68.5,64.1,29.97,ESE,117,0.0,4.0,86,0.00,,,0.00,Wunderground v.1.15,2013-09-09 03:46:00,
2013-09-08 23:50:00,68.5,64.1,29.97,ESE,117,2.0,2.0,86,0.00,,,0.00,Wunderground v.1.15,2013-09-09 03:50:00,
2013-09-08 23:51:00,68.5,64.1,29.97,ESE,113,1.0,3.0,86,0.00,,,0.00,Wunderground v.1.15,2013-09-09 03:51:00,
2013-09-08 23:53:00,68.5,64.1,29.97,ESE,112,0.0,3.0,86,0.00,,,0.00,Wunderground v.1.15,2013-09-09 03:53:00,
2013-09-08 23:55:00,68.5,64.1,29.97,ESE,113,2.0,3.0,86,0.00,,,0.00,Wunderground v.1.15,2013-09-09 03:55:00,
2013-09-08 23:56:00,68.5,64.1,29.97,ESE,103,1.0,3.0,86,0.00,,,0.00,Wunderground v.1.15,2013-09-09 03:56:00,
2013-09-08 23:58:00,68.5,64.1,29.97,ESE,107,2.0,3.0,86,0.00,,,0.00,Wunderground v.1.15,2013-09-09 03:58:00,